[{"header": {"dx": 0.06612293990616946, "dy": 0.0552356325346848, "nx": 98, "ny": 59, "la1": 35.046912555036876, "la2": 31.78801023549047, "lo1": -121.43107172385933, "lo2": -114.95102361305473, "refTime": "2026040809", "parameterCategory": 1, "parameterNumber": 2}, "data": [8.11, 8.11, 7.69, 7.93, 7.93, 7.99, 8.66, 9.31, 8.84, 9.53, 8.78, 7.24, 4.48, 0.0, -1.93, -4.2, -5.46, -6.64, -6.63, -5.59, -6.4, -6.64, -6.61, -6.61, -6.58, -5.6, -4.43, -3.47, -1.98, 0.0, 2.6, 5.36, 5.36, 5.26, 5.29, 5.81, 6.26, 6.71, 6.58, 6.94, 7.15, 8.05, 9.83, 9.96, 10.8, 11.04, 12.89, 13.51, 12.89, 12.89, 9.42, 6.2, -0.0, -0.0, 2.82, 5.7, 7.27, 8.37, 9.6, 9.6, 9.63, 9.75, 9.54, 6.64, 5.69, 5.72, 6.4, 7.12, 8.19, 10.32, 11.36, 9.7, 8.89, 8.05, 7.94, 8.24, 8.56, 10.52, 11.62, 4.4, -6.26, -4.77, -4.77, -4.92, -4.92, -3.58, -4.92, 5.81, 5.36, 6.79, 7.35, 7.44, 7.02, 7.02, 7.32, 7.07, 7.03, 6.94, 8.11, 7.83, 8.11, 8.11, 8.38, 7.93, 8.25, 8.58, 9.22, 9.11, 8.05, 8.38, 8.22, 7.59, 4.8, 0.0, -4.0, -7.27, -7.21, -6.18, -7.37, -7.4, -7.45, -7.6, -6.26, -6.71, -6.51, -5.58, -4.74, -3.72, -3.0, 6.26, 6.26, 5.51, 5.81, 5.94, 7.08, 7.15, 7.52, 7.06, 7.47, 9.13, 10.0, 9.42, 10.18, 11.44, 12.78, 12.45, 11.82, 10.58, 10.79, -0.0, 1.69, 2.7, 3.87, 5.7, 7.27, 7.81, 9.1, 9.6, 9.4, 9.04, 8.05, 6.64, 5.69, 5.93, 6.6, 7.12, 8.14, 9.33, 10.75, 10.25, 9.21, 8.49, 8.05, 8.38, 9.24, 10.52, 11.62, 4.4, -6.26, -4.77, -4.77, -4.92, -4.92, -3.58, -4.92, 5.81, 5.36, 6.79, 7.35, 7.44, 7.02, 7.02, 7.32, 7.07, 7.03, 6.94, 7.4, 7.83, 7.83, 7.83, 8.08, 8.64, 8.64, 8.96, 9.12, 9.11, 7.12, 5.52, 7.26, 7.9, 7.87, 8.18, 8.18, -3.65, -7.27, -6.95, -6.06, -7.64, -7.64, -7.2, -7.89, -6.71, -6.71, -6.71, -6.4, -6.08, -4.56, -5.37, -7.15, -0.0, 3.47, 6.8, 6.88, 8.05, 8.49, 8.22, 8.0, 7.78, 9.4, 10.43, 10.98, 11.73, 11.83, 11.29, 10.12, 7.59, 4.6, 1.93, 3.65, 3.11, 3.7, 4.88, 5.72, 7.81, 8.72, 9.4, 9.4, 8.8, 7.81, 6.32, 5.15, 5.06, 6.44, 7.03, 8.0, 8.95, 9.74, 10.52, 10.58, 9.39, 8.77, 8.49, 9.83, 11.98, 12.07, 9.6, -6.0, -5.81, -5.36, -5.2, -4.47, -4.02, -4.24, 5.81, 5.6, 7.2, 9.2, 8.32, 7.31, 6.95, 7.02, 6.06, 5.72, 5.69, 7.4, 7.83, 7.8, 7.83, 8.08, 8.33, 8.9, 9.23, 9.12, 8.46, 7.28, 5.62, 5.77, 5.7, 6.17, 6.17, 8.23, 4.8, -5.95, -7.74, -7.28, -5.93, -7.64, -7.92, -7.35, -8.33, -7.15, -7.15, -7.15, -5.37, -4.14, -6.32, -7.28, -8.24, 8.05, 8.05, 8.94, 9.7, 9.55, 9.52, 9.8, 10.43, 10.59, 10.71, 10.05, 10.01, 9.59, 8.47, 8.8, 8.4, 4.0, 4.83, 2.97, 2.58, 3.3, 4.66, 6.3, 7.47, 8.99, 9.55, 9.33, 8.8, 7.21, 5.72, 5.24, 5.72, 6.7, 7.32, 7.61, 8.82, 10.48, 11.62, 11.8, 9.83, 6.98, 5.86, 8.8, 11.4, 13.41, 10.18, -1.84, -3.16, -3.48, -4.85, -4.47, -4.92, -5.36, 4.8, 5.93, 8.3, 9.9, 8.68, 6.95, 6.64, 5.3, 5.15, 5.21, 5.05, 7.4, 7.83, 7.8, 7.8, 8.08, 8.75, 9.02, 8.9, 8.76, 8.58, 6.94, 5.1, 5.54, 5.29, 4.6, 4.8, 5.95, 7.9, 0.0, -8.49, -8.73, -8.0, -6.8, -7.37, -7.2, -7.81, -7.89, -8.06, -3.8, -2.4, -3.15, -4.66, -5.9, -5.29, 0.0, 3.39, 4.8, 8.53, 10.54, 10.76, 10.89, 10.47, 9.8, 10.61, 11.03, 11.12, 10.28, 9.39, 8.17, 7.37, 7.44, 5.59, 2.83, 2.46, 3.7, 6.01, 7.21, 8.0, 8.18, 8.8, 9.33, 8.54, 6.01, 5.53, 5.59, 7.06, 6.7, 6.08, 6.68, 8.3, 10.48, 12.56, 12.22, 10.92, 8.05, 2.21, 4.2, 8.05, 11.84, 10.75, -2.68, -4.22, -3.83, -3.87, -4.3, -3.93, 1.7, 5.59, 7.02, 8.6, 8.3, 7.32, 6.68, 4.74, 3.91, 5.37, 5.75, 5.6, 7.4, 7.4, 7.8, 7.8, 7.8, 8.46, 8.72, 8.58, 8.9, 8.58, 7.14, 4.88, 4.6, 6.17, 6.44, 5.29, 4.8, 6.98, 5.2, -5.99, -9.62, -8.3, -9.1, -8.4, -7.76, -6.91, -6.87, -4.6, -1.75, 0.0, 1.67, 0.0, -2.97, -3.07, -0.74, 0.75, 2.53, 6.79, 9.77, 10.05, 8.2, 6.65, 9.58, 11.18, 11.18, 10.73, 10.28, 9.83, 9.34, 9.11, 8.48, 7.67, 4.6, 2.83, 4.83, 6.64, 7.21, 7.21, 8.6, 9.24, 9.13, 7.81, 5.2, 5.69, 6.06, 7.67, 7.03, 5.46, 5.49, 7.6, 10.25, 11.23, 11.62, 11.2, 10.58, 7.06, 1.84, 3.47, 5.44, 9.39, -2.95, -3.22, -3.63, -4.46, -4.43, -1.07, 1.84, 5.38, 7.52, 7.18, 6.32, 7.68, 6.06, 3.47, 0.0, 4.43, 5.05, 6.94, 7.4, 7.4, 7.83, 7.8, 8.04, 8.72, 8.72, 8.58, 8.9, 7.73, 6.2, 4.24, 5.29, 8.23, 9.67, 7.27, 5.75, 7.44, 8.53, 3.32, -7.68, -10.12, -9.6, -9.24, -7.96, -6.7, -5.6, -4.32, -3.39, -2.17, 0.0, 6.32, 6.64, 1.54, 0.0, 0.0, 0.81, 6.0, 8.83, 7.69, 5.28, 1.71, 3.96, 8.85, 10.94, 10.52, 10.96, 10.16, 9.83, 10.28, 9.83, 8.3, 4.83, 4.83, 5.86, 6.64, 7.21, 7.81, 8.8, 9.24, 8.99, 7.81, 6.87, 6.6, 5.82, 6.4, 6.94, 7.37, 7.06, 7.15, 9.39, 9.39, 9.36, 11.06, 11.96, 11.14, 5.94, 3.48, 4.92, 5.81, 1.14, -0.89, -1.55, -2.4, -0.77, 0.65, 2.99, 4.58, 5.41, 5.64, 5.21, 6.17, 0.0, -6.26, -3.72, 3.91, 5.72, 7.03, 7.44, 7.4, 7.64, 8.04, 8.28, 8.72, 8.72, 8.28, 8.33, 7.48, 5.95, 3.93, 5.29, 8.94, 11.21, 9.96, 9.97, 9.62, 10.41, 11.72, 11.62, -1.77, -5.86, -8.29, -7.67, -5.73, -5.33, -5.33, -6.45, -6.5, -3.39, 0.0, 4.48, 5.98, 2.71, 0.78, 0.0, 2.41, 5.46, 6.76, 5.2, 2.71, 2.24, 4.52, 6.42, 7.65, 7.32, 9.33, 9.7, 10.04, 8.85, 9.21, 4.83, 5.21, 6.01, 6.01, 7.21, 7.64, 8.58, 9.42, 8.58, 8.63, 7.63, 6.58, 6.8, 6.9, 8.29, 8.49, 7.06, 6.94, 8.01, 8.46, 9.26, 10.93, 10.93, 10.73, 9.21, 5.34, 5.34, 9.72, 10.73, 2.12, 0.0, 0.0, 0.71, 2.76, 3.41, 3.76, 3.95, 3.88, 4.4, 0.0, -5.75, -6.17, 0.0, 3.47, 5.72, 6.08, 7.83, 8.08, 7.8, 8.04, 8.72, 8.72, 8.72, 8.28, 7.64, 6.53, 5.26, 3.82, 3.56, 4.1, 7.28, 9.77, 9.77, 10.55, 11.6, 11.87, 12.52, 12.71, 5.8, -4.93, -6.24, -5.77, -4.88, -7.95, -8.61, -6.16, -2.37, 0.0, 0.0, 2.28, 2.94, 3.06, 1.18, 1.07, 2.39, 4.6, 3.39, 3.21, 4.24, 3.41, 2.16, 2.41, 3.39, 6.4, 8.05, 8.95, 9.21, 8.77, 4.83, 4.66, 5.46, 6.64, 7.51, 8.21, 8.72, 8.72, 8.99, 8.24, 6.26, 7.21, 2.83, 7.15, 8.89, 9.39, 7.89, 7.45, 7.97, 8.82, 10.49, 11.28, 10.49, 8.9, 7.54, 7.89, 10.16, 11.54, 12.87, 5.84, 1.28, 1.4, 2.11, 2.82, 3.46, 3.88, 2.4, 0.7, -1.66, -4.73, -5.34, -3.91, 1.03, 4.01, 5.72, 5.43, 7.8, 7.8, 8.04, 7.76, 8.43, 8.72, 8.72, 8.28, 7.64, 6.29, 5.89, 5.65, 5.14, 3.36, 3.12, 4.58, 6.4, 6.1, 7.1, 5.8, 4.65, 4.65, 8.05, 0.0, -5.75, -6.01, -5.31, -6.98, -8.91, -4.65, 0.0, 0.0, 0.0, 0.0, 0.0, 1.47, 4.75, 3.4, 2.33, 2.39, 2.41, 2.99, 2.82, 3.72, 2.49, 0.74, 1.52, 3.02, 6.31, 7.02, 7.47, 6.01, 4.6, 5.72, 6.11, 7.06, 8.05, 8.55, 8.82, 9.06, 8.36, 7.56, 8.05, 4.96, 2.17, 5.69, 7.85, 8.33, 7.94, 7.89, 8.38, 9.58, 11.28, 10.84, 10.18, 9.35, 8.87, 8.29, 9.28, 11.6, 12.52, 12.94, 4.71, 1.45, 2.2, 2.47, 3.9, 3.72, 3.79, 3.16, -3.82, -5.29, -3.79, -2.47, 0.0, 3.11, 5.0, 4.36, 7.8, 7.8, 7.76, 8.18, 8.18, 8.43, 8.72, 8.04, 7.4, 6.27, 6.53, 6.76, 7.29, 6.2, 4.52, 3.0, 4.42, 4.18, 4.37, 3.87, 2.34, 0.0, 1.73, 2.2, -5.2, -6.32, -6.17, -5.45, -7.19, -3.76, 0.0, 1.83, 0.0, -2.08, -2.28, 0.0, 4.54, 5.72, 3.2, 4.56, 1.25, 0.0, -0.0, -0.0, -0.0, 0.0, 0.0, 0.0, 0.0, 0.0, -8.49, 2.69, 6.01, 6.98, 7.28, 7.44, 8.55, 9.11, 9.36, 8.94, 8.49, 7.6, 8.77, 2.28, 3.15, 6.28, 7.35, 7.35, 7.31, 8.05, 8.91, 9.68, 11.09, 10.8, 10.6, 10.6, 8.99, 8.4, 8.4, 10.15, 11.58, 12.44, 11.62, 6.14, 2.99, 3.49, 5.24, 6.0, 5.73, 4.92, 4.47, 2.0, -1.83, -1.41, 0.0, 2.12, 3.47, 3.55, 7.8, 7.8, 7.53, 8.18, 8.18, 8.18, 8.43, 8.04, 7.4, 6.92, 6.92, 7.16, 7.93, 8.25, 8.29, 6.21, 5.6, 4.95, 4.95, 4.42, 2.72, 1.11, 1.05, 2.82, 0.0, -3.72, -4.43, -2.53, -3.07, -0.95, 0.0, 0.0, -6.26, -2.98, -1.28, 0.0, 1.84, 2.54, 8.05, -0.0, -0.0, -0.0, -0.0, -0.0, -5.06, -6.14, -6.94, -7.01, -7.6, -8.05, -6.32, 0.0, 8.05, 7.89, 8.06, 7.95, 8.63, 9.26, 9.39, 9.35, 8.8, 8.67, 6.64, -2.17, 2.17, 6.28, 6.32, 7.67, 7.89, 8.05, 8.63, 9.68, 10.1, 9.92, 10.08, 10.84, 10.35, 8.6, 8.32, 9.78, 9.84, 9.33, 9.81, 9.39, 8.33, 7.6, 7.67, 8.8, 7.74, 6.64, 4.87, 3.6, 2.84, 1.05, 0.83, 1.52, 1.63, 1.96, 7.8, 7.8, 7.8, 8.18, 8.18, 8.18, 8.04, 7.8, 7.36, 7.16, 7.31, 7.83, 8.08, 9.06, 10.01, 11.14, 9.8, 7.24, 5.2, 5.08, 4.58, 3.49, 1.75, 1.6, 4.11, 0.0, -4.24, -2.84, -3.07, -3.09, -4.15, -5.6, -3.22, -0.0, 5.81, 6.0, 3.0, -0.0, -0.0, -0.0, -8.05, -3.2, 0.0, 2.6, -2.4, -3.93, -4.11, -5.36, -6.44, -5.69, -3.2, -1.07, 0.0, 3.15, 7.51, 8.3, 7.5, 7.98, 8.05, 8.43, 8.22, 8.0, -8.0, -8.48, -0.0, 6.32, 5.58, 5.82, 6.6, 6.8, 7.15, 7.5, 7.31, 7.81, 8.99, 10.68, 11.11, 9.77, 8.93, 8.23, 6.96, 6.44, 9.34, 10.52, 8.05, 8.49, 10.32, 9.2, 7.6, 8.17, 6.66, 4.73, 3.82, 4.6, 4.19, 3.72, 2.49, 1.63, 7.8, 7.8, 8.2, 7.93, 8.18, 8.18, 8.04, 7.8, 7.8, 7.55, 7.55, 8.2, 8.75, 9.02, 10.02, 11.74, 12.22, 12.0, 9.89, 8.09, 6.81, 6.98, 6.97, 5.32, 4.46, 1.41, -4.92, -3.7, -4.69, -5.4, -4.8, -5.29, -6.79, -2.8, 3.0, 3.72, 4.74, 5.37, 5.37, 7.6, 0.0, 0.0, 0.0, 1.0, 0.0, -2.8, -2.29, -3.35, -3.35, -2.21, -2.46, 0.0, 0.0, 1.11, 2.23, 2.75, 2.49, 6.58, 7.15, 6.26, 0.0, -2.97, -7.44, -7.07, -3.97, 0.0, 6.26, 5.6, 4.22, 2.8, -0.0, -0.0, 3.0, 6.26, 7.31, 9.66, 8.95, 7.6, 8.05, 7.07, 4.74, 6.01, 9.21, 10.41, 9.4, 9.92, 10.91, 8.82, 6.8, 6.61, 6.71, 5.32, 5.2, 5.09, 5.75, 6.0, 5.81, 6.0, 7.8, 7.8, 8.2, 8.2, 8.2, 8.46, 8.46, 8.04, 7.8, 7.8, 8.2, 8.2, 8.46, 9.42, 10.37, 11.7, 12.07, 12.14, 12.26, 11.6, 10.24, 10.28, 10.37, 9.69, 7.24, 2.82, -5.95, -4.38, -2.97, -3.39, -3.87, -3.54, -6.26, -7.15, -0.0, 7.6, 8.49, 7.6, 8.49, 0.0, 2.26, 0.0, 0.0, 0.0, -5.81, 7.6, 0.0, 0.0, -2.12, -2.98, -2.04, 0.0, 2.13, 0.94, 0.0, 0.0, 0.0, 2.0, 4.3, 7.15, -7.63, -5.69, -4.56, -2.82, -2.4, -1.4, 0.0, 4.74, 5.6, -0.0, -0.83, -0.0, -0.0, 1.84, 6.26, 7.21, 7.63, 7.4, 6.8, 6.99, 6.32, 5.06, 7.33, 8.88, 8.63, 8.42, 9.6, 10.14, 7.37, 7.45, 7.15, 6.66, 6.07, 5.16, 6.2, 6.61, 5.51, 5.51, 7.8, 7.8, 8.2, 8.2, 8.2, 8.2, 8.2, 8.04, 8.04, 7.8, 8.2, 8.46, 8.85, 9.12, 10.37, 11.36, 11.38, 12.02, 12.43, 12.16, 11.8, 11.79, 11.75, 11.5, 10.37, 7.85, 4.4, 7.15, 4.11, -0.0, -2.84, -3.39, -3.04, -5.06, -0.0, 4.74, 7.6, 7.6, 8.05, 0.0, 0.0, 0.0, -7.15, -4.74, -3.0, -0.0, -0.0, -0.0, 6.71, 0.0, 0.0, 0.0, 1.73, 0.0, 0.0, 0.0, 0.0, 2.66, 7.2, 8.49, -8.05, -8.05, -3.2, -1.73, -2.26, -1.18, 0.0, 0.0, -0.0, -1.32, -3.2, -1.1, 1.23, 3.97, 6.8, 8.05, 8.48, 8.94, 8.67, 7.6, 8.0, 7.2, 6.0, 7.21, 7.63, 5.4, 7.2, 8.49, 6.13, 5.81, 7.54, 5.64, 5.29, 6.21, 7.48, 6.11, 5.34, 5.34, 8.08, 8.2, 8.2, 7.95, 8.2, 8.2, 8.2, 8.46, 8.46, 8.46, 8.46, 8.46, 8.85, 9.49, 10.08, 10.73, 11.06, 11.36, 11.68, 11.73, 11.72, 11.69, 11.53, 10.94, 11.57, 11.37, 11.44, 11.18, 9.79, 8.49, 7.15, 5.81, -0.0, -0.0, -0.0, -0.0, -4.74, -7.15, -6.71, -4.74, -4.11, -5.2, -6.71, -6.71, -0.0, -0.0, -0.0, -0.0, -0.0, -0.0, 7.15, 7.15, -0.0, -0.0, -0.0, 7.6, 5.69, 8.49, 8.94, 9.39, 8.94, -0.0, -0.0, 7.15, 0.0, 1.52, 0.0, 0.0, -7.6, -4.74, -5.95, -6.71, 7.15, 7.6, 8.05, -0.0, 1.84, 4.6, 7.27, 6.64, 8.94, 8.49, 7.63, 6.7, 7.21, 6.17, 5.36, 3.83, 5.29, 6.71, 9.79, 7.54, 5.94, 6.57, 8.19, 6.64, 5.34, 5.34, 8.08, 8.49, 8.49, 7.95, 7.95, 8.2, 8.2, 8.2, 8.46, 8.46, 8.46, 8.46, 8.85, 9.49, 9.79, 10.13, 10.75, 11.33, 10.94, 11.29, 11.53, 11.53, 11.44, 11.33, 12.33, 13.39, 13.41, 12.96, 12.52, 11.62, 9.34, 7.06, 4.92, -0.0, -0.59, -1.05, -3.79, -6.26, -5.6, -5.6, -6.26, -7.15, -6.4, -5.37, -8.49, 8.49, 8.49, -0.0, -0.0, -0.0, -0.0, 2.54, -0.0, -0.0, 8.05, 8.05, 8.49, -0.0, 8.94, 8.94, 8.94, 6.01, -0.0, -0.0, -0.0, -0.0, 4.43, 1.73, 0.0, -7.15, -7.21, -4.22, -2.69, -2.83, -8.91, -4.96, -0.0, 5.06, 6.95, 6.01, 3.97, 6.36, 6.58, 6.0, 6.4, 6.13, 6.32, 5.81, 6.65, 7.28, 9.21, 7.98, 6.45, 6.6, 6.64, 6.0, 5.05, 5.05, 8.49, 8.49, 8.22, 8.22, 7.95, 7.95, 8.2, 8.58, 8.85, 8.46, 8.46, 8.46, 8.85, 9.22, 9.22, 10.47, 9.82, 11.03, 10.88, 11.22, 11.99, 13.07, 11.82, 12.17, 12.42, 14.4, 11.51, 14.07, 13.15, 11.03, 9.75, 7.2, 5.6, -0.0, -1.2, -2.07, -3.58, -4.47, -6.58, -7.63, -7.15, -7.6, -7.6, -7.6, -8.49, 8.49, 8.49, -0.0, -0.0, -0.0, -0.0, -0.0, -0.0, -0.0, -0.0, 8.49, 8.49, 8.94, 8.94, 8.94, 8.94, 6.01, -0.0, -2.12, -3.0, -2.8, 0.0, 4.29, 4.75, 6.32, 6.95, 9.6, 11.84, 10.04, -7.9, -10.28, 9.83, 8.91, 8.67, 7.2, 6.36, 6.26, 5.81, 5.58, 6.18, 5.53, 5.86, 7.9, 9.3, 7.61, 6.82, 8.06, 7.35, 6.08, 6.07, 6.0, 5.43, 5.43, 8.49, 8.49, 8.22, 8.22, 8.22, 8.22, 8.2, 8.58, 8.85, 8.85, 8.46, 8.46, 8.85, 9.22, 9.22, 9.5, 10.13, 9.5, 8.46, 10.03, 13.97, 13.86, 12.47, 12.52, 10.97, 11.52, 12.45, 10.79, 11.16, 9.16, 7.56, 6.01, 0.0, -4.02, -2.23, -2.68, -4.0, -5.29, -5.81, -6.14, -6.71, -5.58, -3.47, -4.11, -5.81, 8.49, 8.49, -6.01, -0.0, -0.0, -0.0, -0.0, -0.0, -0.0, -0.0, 5.69, 8.94, 8.05, 8.49, 9.39, 8.49, -0.0, -0.0, -3.4, -2.8, -4.43, 6.71, 5.06, 7.06, 8.49, 9.46, 11.44, 13.29, 13.86, 12.56, 8.53, 5.75, 5.29, 7.81, 7.15, 6.71, 7.15, 6.58, 5.4, 4.89, 5.15, 4.43, 4.84, 8.27, 6.32, 4.95, 6.73, 8.05, 5.37, 4.65, 5.06, 5.43, 5.43, 8.22, 8.49, 8.22, 8.22, 8.22, 8.22, 8.2, 8.58, 8.85, 8.85, 8.85, 8.85, 8.85, 9.22, 9.49, 9.84, 10.13, 9.21, 7.6, 9.44, 12.48, 12.63, 12.63, 11.4, 10.75, 10.07, 10.12, 10.12, 8.85, 7.59, 4.22, 0.0, -2.2, -3.13, -3.58, -3.95, -4.47, -4.92, -5.36, -6.26, -6.71, -5.58, -4.43, -4.11, -3.79, -8.05, -8.05, -6.01, -6.01, -0.0, -0.0, -0.0, -0.0, -0.0, -0.0, 7.6, 7.6, 8.49, 9.39, 8.49, 8.49, -5.69, -7.2, -7.6, -6.26, -6.26, -6.26, 6.71, 6.32, 5.03, 6.32, 9.43, 12.3, 12.96, 11.39, 7.41, 5.64, 4.4, 3.49, 4.22, 6.79, 6.71, 6.07, 4.46, 4.11, 5.36, 5.36, 5.81, 5.81, 6.16, 6.01, 6.53, 8.03, 5.72, 3.55, 4.02, 4.74, 4.74, 8.22, 8.22, 8.22, 8.22, 8.22, 8.22, 8.22, 8.58, 8.85, 9.22, 9.22, 8.85, 8.85, 8.85, 9.5, 10.13, 10.13, 9.5, 8.59, 9.44, 11.05, 11.7, 11.39, 11.39, 11.39, 11.41, 11.15, 10.22, 7.65, 4.22, -4.47, -3.6, -2.84, -3.6, -4.47, -4.92, -4.92, -5.36, -5.36, -5.81, -5.64, -5.2, -4.29, -3.79, -3.48, -4.8, -8.49, -5.69, -5.69, -0.0, -0.0, -0.0, -0.0, -0.0, -0.0, 8.05, -0.0, -0.0, 8.94, 8.49, -6.8, -6.32, -5.37, -6.8, -7.15, -6.71, -6.26, -6.71, -0.0, -0.0, 5.36, 8.82, 8.54, 6.23, 2.67, 3.29, 4.75, 4.99, 2.71, 1.47, 2.26, 6.71, 5.6, -0.0, -0.0, -4.43, -5.81, 2.6, 5.95, 8.14, 8.3, 7.61, 8.23, 6.0, 3.79, 3.35, 4.11, 4.11, 8.22, 8.22, 8.22, 8.22, 8.22, 8.22, 8.22, 8.86, 8.58, 9.22, 9.49, 9.49, 9.22, 9.22, 9.5, 10.13, 10.13, 9.8, 9.5, 10.13, 11.99, 11.97, 10.73, 10.44, 10.75, 11.09, 11.44, 10.58, 8.94, 5.69, -7.15, -5.81, -3.48, -2.2, -3.48, -4.8, -5.51, -5.51, -5.81, -5.81, -5.36, -4.98, -4.6, -3.93, -3.16, -4.09, -7.2, -6.8, -5.06, -5.06, -0.0, -0.0, -0.0, -0.0, -0.0, -0.0, -5.06, -8.05, -8.94, 7.15, -5.37, -5.69, -3.6, -0.0, -7.15, -0.0, 6.26, 6.26, -6.71, 7.15, 8.05, 8.49, -0.0, -0.0, 0.0, 1.75, 4.3, 4.62, 3.25, 1.33, 0.0, 0.0, 6.71, 7.15, -7.15, -4.74, 0.0, 1.18, 5.15, 7.33, 8.82, 7.59, 7.61, 4.37, 3.9, 4.4, 4.46, 4.46, 8.22, 8.22, 8.22, 8.22, 8.22, 8.22, 8.59, 8.86, 8.58, 9.22, 9.49, 9.49, 9.49, 9.22, 9.79, 9.84, 10.13, 10.12, 9.8, 10.72, 11.58, 12.16, 11.52, 10.65, 10.43, 10.78, 10.78, 11.25, 9.89, 8.43, 8.4, 0.0, 0.0, 0.0, 0.0, 0.0, -4.74, -6.0, -5.94, -6.26, -5.81, -5.26, -4.57, -4.22, -3.83, -4.15, -6.8, -6.8, -6.8, -5.69, -6.01, -0.0, -0.0, -0.0, -0.0, -0.0, -0.0, -6.71, -8.05, 7.15, -0.0, 7.15, 7.6, 7.15, -4.43, -0.0, 7.15, 8.49, 7.6, 0.0, 0.0, 0.0, 6.71, 5.81, 0.0, 0.0, 2.4, 4.2, 4.0, 3.4, 1.32, 0.0, 0.0, 0.0, -2.4, 0.0, 0.0, 1.96, 3.2, 4.36, 7.33, 4.43, 3.79, 4.15, 4.02, 4.66, 4.52, 4.52, 8.51, 8.51, 8.22, 8.22, 7.96, 7.96, 8.59, 8.86, 8.86, 9.22, 9.49, 9.84, 9.84, 9.84, 10.13, 10.13, 9.82, 9.82, 10.12, 10.72, 11.33, 11.87, 12.09, 11.81, 10.87, 10.76, 10.86, 10.58, 9.69, 9.3, 8.55, 8.8, 6.32, 5.37, 3.2, 3.2, 0.0, -3.4, -5.06, -5.94, -5.81, -5.26, -4.57, -4.22, -4.22, -4.57, -5.7, -6.71, -7.01, -6.4, -6.0, -6.01, -5.37, -0.0, -0.0, -0.0, -0.0, -5.81, -7.15, 6.71, 5.81, 4.92, 0.0, 5.36, -0.0, 7.15, 8.49, 8.49, -8.05, 0.0, 4.46, 6.08, 7.01, 6.71, 5.81, 5.81, 5.2, 4.74, 6.44, 5.59, 4.19, 2.32, 1.52, 0.0, -1.84, 0.0, 0.0, 0.89, 1.96, 2.8, 5.6, 7.06, 5.4, 5.26, 4.85, 4.73, 5.16, 5.16, 8.51, 8.51, 8.23, 7.96, 7.96, 7.96, 8.59, 8.86, 9.14, 9.22, 9.22, 9.84, 9.84, 10.13, 10.13, 10.13, 10.13, 9.82, 10.13, 10.75, 11.66, 11.92, 12.16, 12.09, 11.81, 11.32, 10.82, 10.24, 9.26, 9.08, 8.82, 9.1, 8.8, 7.67, 6.7, 6.7, 4.46, 0.0, 0.0, -5.06, -6.26, -5.81, -5.2, -4.8, -4.8, -5.26, -5.81, -6.71, -7.01, -6.64, -6.13, -5.01, -5.37, -3.4, -3.4, -3.4, -0.0, -0.0, 6.71, 0.0, 0.0, 7.15, 5.36, 3.58, 5.81, 8.49, 8.94, -8.49, -7.15, -7.15, 2.4, 6.64, 7.31, 7.15, 7.11, 8.06, 7.95, 6.45, 5.59, 5.93, 5.59, 3.47, 2.6, 0.0, -1.63, -1.73, 0.0, 0.0, 0.0, 0.0, 0.0, 6.26, 6.36, 5.6, 4.52, 4.93, 4.73, 4.73, 8.23, 8.23, 8.23, 8.23, 8.59, 8.87, 8.59, 8.86, 9.14, 9.5, 9.22, 9.84, 9.84, 10.47, 10.47, 10.13, 10.13, 10.13, 10.15, 10.75, 11.36, 11.92, 11.87, 11.8, 12.09, 11.96, 11.44, 10.24, 9.26, 8.64, 8.73, 8.32, 7.68, 7.69, 7.44, 6.91, 7.07, 6.01, 5.1, 2.4, 0.0, -4.43, -5.81, -5.2, -5.51, -5.81, -5.81, -6.26, -6.71, -6.23, -5.75, -4.89, -4.11, -3.07, -4.43, -3.72, -3.4, -0.0, -0.0, 6.71, -3.8, 0.0, 8.05, 5.81, 8.94, 8.49, 0.0, -7.6, -6.8, 0.0, 1.84, 4.14, 6.63, 7.74, 5.77, 6.94, 6.0, 6.26, 4.47, 3.97, 5.06, 3.72, 2.98, 0.0, -1.98, -1.98, 0.0, -1.84, -5.06, -5.58, -2.8, 5.94, 5.94, 5.24, 4.81, 4.46, 4.66, 4.66, 8.23, 8.23, 8.23, 8.23, 8.59, 8.87, 8.59, 8.86, 9.5, 9.5, 9.22, 9.49, 9.84, 10.47, 10.47, 10.76, 9.84, 10.13, 10.45, 11.06, 11.36, 11.58, 11.87, 12.16, 11.8, 12.24, 11.45, 11.17, 9.9, 8.93, 8.65, 7.96, 7.59, 7.23, 7.32, 7.44, 7.15, 6.52, 6.01, 4.83, 2.4, 0.0, -5.81, -4.11, -5.6, -6.26, -4.74, -6.51, -6.71, -6.14, -5.01, -4.11, -3.35, -3.07, -3.07, -3.47, -3.4, -0.0, -0.0, 6.71, -3.2, -5.69, -5.37, 7.6, 8.94, 0.0, 8.49, -8.05, -5.37, 0.0, 2.54, 4.14, 5.31, 5.59, 6.52, 4.47, 5.73, 6.71, 1.63, 3.0, 4.74, 3.83, 3.22, 1.08, -4.92, -5.09, -4.43, -5.06, -5.06, -2.26, 0.0, 5.58, 6.17, 5.2, 3.91, 3.72, 4.11, 4.11, 8.23, 8.23, 8.23, 8.59, 8.59, 8.87, 8.87, 9.21, 9.5, 9.5, 9.5, 9.22, 9.84, 10.47, 10.47, 10.47, 10.45, 10.13, 10.13, 10.75, 11.36, 11.58, 11.58, 11.52, 11.8, 11.58, 11.72, 11.17, 10.24, 9.27, 8.65, 8.32, 7.59, 7.23, 7.23, 6.98, 7.06, 6.79, 6.32, 6.01, 4.56, 2.12, 0.0, -6.71, -7.15, -6.26, -5.2, -5.21, -6.26, -6.51, -5.01, -3.22, -2.95, -2.53, -2.53, -2.68, -4.74, -0.0, -0.0, 6.71, -6.0, -7.21, -6.4, 0.0, 9.39, 8.94, 8.94, -8.05, -7.6, -5.69, 0.0, 6.9, 7.07, 5.2, 3.81, 4.96, 5.01, 5.36, 4.74, 2.99, 4.11, 4.37, 4.43, 2.95, -3.16, -4.0, -4.8, -3.76, 0.0, 0.0, 1.63, 3.72, 5.81, 6.2, 5.37, 3.47, 3.11, 3.11, 8.23, 8.23, 8.23, 8.23, 8.59, 8.87, 8.87, 9.21, 9.5, 9.5, 9.5, 9.22, 9.84, 10.13, 10.47, 10.47, 10.76, 10.75, 10.44, 10.43, 11.03, 11.03, 11.33, 11.58, 11.28, 11.23, 11.04, 11.17, 10.18, 9.21, 8.94, 8.23, 8.18, 7.81, 7.51, 7.27, 7.33, 6.64, 6.79, 6.01, 5.03, 4.29, 0.0, 0.0, -4.92, -7.6, -5.37, -2.23, -3.6, -3.6, -2.48, -1.08, -2.2, -2.2, -2.2, -2.0, -1.66, -1.41, -1.52, -4.43, -6.71, -7.37, -6.8, -7.6, -8.49, -5.69, -7.2, -6.01, -4.43, -3.4, 0.0, 5.37, 7.74, 8.3, 7.27, 6.42, 6.3, 5.72, 5.09, 4.43, 3.07, 4.71, 5.05, 4.11, 4.02, -3.6, -4.02, -3.58, -2.0, -1.08, 0.0, 0.0, 4.46, 6.71, 6.71, 6.36, 4.89, 4.89, 8.23, 8.23, 8.23, 8.59, 8.59, 8.87, 9.21, 9.5, 9.5, 9.5, 9.5, 9.5, 9.49, 9.84, 10.47, 10.47, 10.76, 10.45, 10.75, 10.43, 10.99, 11.33, 11.33, 11.58, 11.58, 11.28, 10.73, 10.47, 10.19, 9.82, 9.46, 8.86, 8.82, 8.09, 7.72, 7.51, 7.27, 6.64, 6.64, 6.79, 5.69, 4.47, 3.47, 0.0, -3.79, -5.37, -2.26, -1.41, -2.53, -2.84, -0.0, -0.0, -0.0, -1.19, -1.19, -1.19, -1.66, -2.2, -2.98, -5.01, -6.71, -7.37, -8.06, -7.6, 8.49, -0.0, -6.71, -5.37, 4.43, 4.43, 1.84, 1.84, 5.58, 8.49, 10.16, 9.65, 8.03, 6.87, 5.58, 4.98, 4.19, 2.73, 3.49, 3.43, 0.0, -4.92, -4.02, -4.02, -3.58, -3.58, -3.58, -4.47, 5.36, 5.81, 6.71, 6.71, 6.71, 6.71, 8.23, 8.23, 8.23, 8.59, 8.59, 8.87, 9.21, 9.5, 9.5, 9.5, 9.5, 9.5, 9.5, 9.84, 10.47, 10.47, 10.76, 10.76, 11.06, 11.33, 11.33, 11.63, 11.33, 11.58, 11.58, 10.99, 10.74, 9.48, 9.02, 9.09, 9.73, 9.73, 8.79, 8.37, 8.27, 8.09, 7.61, 7.31, 7.02, 6.73, 6.45, 5.37, 4.74, 4.11, 2.8, 0.0, 0.0, 0.0, 6.26, -0.0, 2.6, 1.7, -0.0, -0.0, -0.0, -1.19, -1.19, -1.66, -2.79, -3.72, -6.71, -7.6, -8.49, -8.05, -0.0, -0.0, -0.0, 0.0, 3.97, 5.36, 2.99, 1.18, 4.0, 8.82, 10.73, 11.05, 8.4, 5.49, 4.54, 5.43, 6.7, 4.83, 5.63, 4.43, 3.4, -5.37, -6.26, -4.02, -4.85, -3.95, -3.74, -3.2, -3.72, -0.0, 6.07, 6.23, 6.0, 6.0, 8.23, 8.23, 8.23, 8.59, 8.59, 8.87, 9.21, 9.5, 10.13, 9.84, 9.5, 9.5, 9.5, 9.5, 9.84, 10.45, 10.76, 10.75, 11.03, 11.33, 11.66, 11.97, 11.97, 11.63, 11.28, 10.72, 10.12, 9.15, 8.21, 8.97, 8.82, 9.08, 8.38, 8.65, 8.55, 7.64, 7.87, 7.61, 6.98, 7.02, 6.73, 6.11, 5.49, 4.74, 4.43, 5.95, 6.7, 7.21, 7.15, 6.79, 4.74, 3.47, 1.7, 1.55, -0.0, -0.0, -0.0, -1.08, -1.8, -3.16, -4.77, -7.6, 8.94, -0.0, -0.0, -1.84, -1.84, 7.15, 3.6, 6.7, 4.46, 0.0, 0.0, 6.01, 10.28, 11.57, 9.46, 5.37, 6.8, 6.88, 8.41, 10.28, 10.41, 9.64, 6.9, 5.1, 0.0, -3.2, -5.09, -4.0, -3.58, -2.86, -2.53, -2.0, -0.0, 5.01, 4.89, 4.89, 7.96, 7.96, 8.23, 8.59, 8.59, 8.87, 9.21, 9.5, 9.82, 9.84, 9.84, 9.5, 9.5, 9.5, 10.13, 10.13, 9.84, 10.43, 10.43, 11.66, 11.92, 12.22, 12.22, 11.63, 11.63, 11.03, 10.12, 9.15, 9.15, 9.17, 8.84, 8.15, 8.15, 8.38, 8.65, 8.55, 7.9, 7.51, 6.98, 7.02, 6.68, 6.06, 5.77, 5.49, 5.24, 5.36, 6.8, 7.37, 8.05, 8.05, 6.32, 5.58, 3.47, 1.84, 1.7, 1.41, 1.27, -0.0, -0.0, -1.27, -7.6, 7.6, -0.0, -0.0, -2.26, -3.97, -3.2, -3.0, 7.6, 0.0, 0.0, 0.0, 2.06, 4.68, 8.38, 11.34, 11.06, 10.52, 9.2, 9.46, 10.22, 10.28, 10.18, 10.18, 9.75, 6.99, 4.89, 3.58, 4.92, -0.0, -1.27, -1.98, -1.9, -1.6, -0.0, 3.79, 4.65, 4.65, 7.96, 7.96, 8.23, 8.59, 8.59, 8.59, 9.21, 9.5, 9.82, 10.13, 9.84, 9.84, 9.5, 9.5, 9.84, 9.21, 9.82, 10.43, 11.03, 11.36, 11.92, 11.92, 12.22, 12.22, 11.93, 11.33, 10.12, 9.46, 9.15, 9.17, 9.16, 8.15, 8.15, 8.38, 8.65, 8.29, 8.0, 8.09, 7.51, 7.23, 6.98, 6.35, 5.72, 5.43, 6.21, 6.0, 6.4, 7.21, 7.6, 8.05, 7.37, 5.95, 5.95, 3.47, 3.22, 2.98, 1.55, 1.41, 1.27, 1.41, -0.0, -0.0, -0.0, -0.0, -0.0, -5.69, -5.06, -3.2, -7.6, -3.4, -3.97, 0.0, 5.36, 7.06, 8.93, 11.03, 12.01, 11.2, 11.38, 11.87, 11.14, 10.23, 8.6, 7.81, 7.63, 6.07, 5.59, 5.09, 4.92, 4.92, 3.16, -0.0, -0.0, -0.0, 4.02, 4.47, 5.09, 5.09, 8.24, 8.24, 8.23, 8.59, 8.59, 8.59, 9.21, 9.21, 9.82, 9.82, 9.84, 9.84, 9.84, 9.84, 9.84, 9.5, 9.82, 10.43, 11.03, 11.63, 11.63, 11.92, 11.92, 12.22, 12.52, 11.88, 10.77, 9.76, 9.48, 9.17, 8.84, 8.73, 8.38, 8.65, 8.65, 8.08, 8.0, 8.27, 8.09, 7.81, 7.23, 6.59, 6.0, 6.25, 6.4, 6.4, 6.7, 7.31, 7.5, 7.6, 7.45, 6.4, 5.58, 5.21, 4.11, 2.98, 2.73, 2.48, 2.23, 1.41, 1.41, -0.0, -0.0, -5.06, -0.0, -0.0, -3.6, -2.54, -5.69, -5.37, -3.8, 0.0, 6.64, 9.16, 10.41, 10.56, 10.68, 10.6, 12.09, 12.43, 11.18, 8.44, 5.6, 3.93, 4.57, 4.92, 4.92, 4.02, 4.47, 4.92, 4.92, 3.82, 3.2, 3.58, 4.02, 4.0, 4.92, 4.92, 8.24, 8.24, 8.53, 8.87, 8.87, 8.87, 9.21, 9.21, 9.82, 9.82, 9.82, 9.84, 10.13, 9.84, 9.84, 9.5, 9.82, 10.43, 11.03, 11.63, 11.63, 11.92, 12.16, 12.16, 12.09, 11.93, 10.73, 10.46, 9.48, 9.17, 8.84, 8.73, 8.38, 9.01, 8.65, 8.29, 8.0, 8.0, 7.9, 8.0, 7.72, 6.79, 6.13, 7.89, 6.36, 6.85, 7.21, 7.42, 7.54, 7.6, 7.15, 6.58, 6.51, 5.21, 4.84, 4.46, 4.09, 2.48, 2.48, 3.16, 3.16, 2.2, -0.0, -0.0, 8.05, -0.0, -0.0, -1.95, -2.54, -7.6, -5.06, -3.2, 8.94, 10.28, 10.28, 10.12, 8.79, 9.06, 11.4, 11.45, 10.18, 8.43, 5.29, 3.82, 4.47, 4.47, 4.92, 4.87, 4.47, 4.92, 4.92, 4.02, 4.02, 4.02, 3.82, 4.24, 4.77, 4.24, 8.24, 8.24, 8.24, 8.87, 8.87, 8.87, 9.5, 9.21, 9.82, 9.82, 9.82, 9.82, 9.82, 9.82, 9.82, 9.5, 9.5, 10.43, 11.03, 11.36, 11.92, 11.92, 11.92, 12.16, 12.45, 11.87, 10.99, 10.11, 10.13, 9.17, 9.17, 9.08, 8.73, 9.21, 9.21, 8.65, 8.0, 8.0, 7.9, 8.0, 7.87, 7.6, 6.28, 7.63, 7.01, 7.48, 7.33, 7.28, 7.42, 7.15, 7.15, 6.71, 6.07, 6.07, 5.51, 4.46, 4.09, 3.72, 3.72, 3.16, 3.16, 3.48, -0.0, -0.0, 7.6, -0.0, -3.8, -2.4, -2.4, -0.0, -7.15, -5.69, 8.49, 8.94, 10.7, 10.28, 8.6, 7.41, 10.41, 11.2, 8.76, 7.37, 6.71, 4.92, 4.82, 4.85, 5.31, 5.32, 4.88, 4.87, 4.92, 4.47, 4.38, 3.9, 3.6, 4.0, 4.98, 4.77, 8.24, 8.24, 8.24, 8.87, 8.87, 8.87, 9.19, 9.5, 9.82, 9.82, 9.82, 9.82, 9.82, 9.82, 9.82, 9.54, 9.5, 9.82, 10.75, 11.03, 11.33, 11.58, 11.87, 11.87, 12.09, 11.52, 11.23, 10.06, 10.09, 9.8, 9.8, 9.12, 9.08, 9.21, 9.21, 8.93, 8.55, 8.0, 7.9, 7.9, 7.61, 7.48, 6.8, 6.0, 8.17, 7.95, 7.81, 7.28, 7.37, 7.15, 6.71, 6.71, 6.26, 6.26, 5.51, 4.46, 4.09, 3.72, 3.72, 3.72, 3.16, 3.48, 3.79, -0.0, 8.05, -0.0, -0.0, -3.4, -3.4, -0.0, -0.0, -5.37, 0.0, 8.0, 9.39, 9.33, 8.14, 7.37, 7.69, 8.55, 6.13, 4.87, 6.26, 5.59, 5.16, 5.59, 6.21, 6.21, 5.77, 5.77, 4.92, 4.92, 4.41, 3.47, 3.6, 4.4, 4.6, 4.98, 8.24, 8.24, 8.24, 8.24, 8.87, 8.87, 9.19, 9.5, 9.8, 10.12, 9.82, 9.82, 9.82, 9.82, 9.82, 9.82, 10.12, 9.8, 10.75, 11.03, 11.33, 11.58, 11.87, 11.87, 11.52, 11.8, 11.23, 10.39, 9.76, 9.76, 10.06, 9.71, 9.66, 9.3, 9.21, 9.1, 8.55, 8.55, 8.0, 7.9, 8.0, 7.23, 6.95, 6.28, 6.67, 8.79, 6.79, 5.51, 6.02, 6.58, 6.71, 6.26, 6.26, 6.26, 5.51, 5.09, 4.46, 3.72, 4.09, 4.09, 3.72, 3.16, -0.0, 5.37, 5.69, -0.0, -0.0, -0.0, -0.0, -0.0, -0.0, -7.6, 0.0, 2.69, 8.24, 7.21, 7.47, 6.65, 5.75, 4.4, 4.15, 4.82, 4.73, 6.79, 7.45, 8.0, 7.6, 7.15, 7.15, 6.71, 7.15, 6.71, 4.43, 3.32, 3.6, 3.58, 4.29, 4.29, 8.24, 8.24, 8.24, 8.24, 8.58, 8.87, 9.19, 9.5, 9.5, 9.8, 9.8, 10.12, 9.82, 9.82, 9.82, 9.82, 9.8, 9.8, 9.82, 11.03, 11.33, 10.99, 11.52, 11.52, 11.8, 11.44, 10.88, 10.35, 10.01, 9.76, 10.06, 9.71, 9.66, 9.66, 9.58, 9.48, 9.1, 8.55, 8.55, 8.27, 7.72, 7.61, 6.95, 6.95, 7.72, 7.71, 6.79, 5.67, 4.87, 5.29, 5.81, 5.81, 5.81, 5.81, 5.09, 5.09, 4.09, 4.09, 4.09, 4.09, 4.09, 3.48, 4.4, 5.69, 5.69, -0.0, -0.0, -0.0, -0.0, -0.0, -3.6, -7.6, -4.0, 0.0, 2.69, 6.4, 6.26, 8.49, 7.98, 6.88, 6.0, 6.21, 8.14, 10.02, 9.36, 8.49, 5.81, 5.77, 5.78, 6.66, 7.11, 7.54, 5.2, 4.24, 3.58, 3.48, 3.48, 3.48, 8.54, 8.54, 8.54, 8.24, 8.58, 8.87, 9.19, 9.19, 9.5, 9.8, 9.8, 9.8, 10.12, 9.82, 9.82, 9.82, 9.8, 9.8, 10.12, 10.72, 10.99, 10.99, 11.28, 11.52, 11.8, 11.44, 11.16, 10.59, 10.01, 9.42, 9.71, 9.37, 9.66, 9.66, 9.58, 9.48, 9.48, 9.1, 8.55, 8.0, 7.9, 7.61, 7.07, 6.95, 7.6, 7.93, 7.21, 6.47, 6.11, 5.77, 5.31, 5.36, 5.36, 5.36, 5.36, 4.77, 4.4, 4.4, 4.8, 4.46, 4.46, 4.09, 4.4, 7.6, 5.37, -0.0, -0.0, -0.0, -0.0, -3.4, -4.22, -7.63, -5.69, 0.0, 1.58, 5.03, 7.4, 8.94, 10.41, 10.04, 9.62, 11.18, 12.39, 12.09, 10.73, 8.43, 5.16, 5.16, 5.02, 5.86, 6.07, 5.64, 5.02, 4.0, 3.83, 3.48, 3.48, 3.48, 8.24, 8.24, 8.54, 8.54, 8.58, 8.58, 8.87, 9.19, 9.19, 9.8, 9.8, 9.8, 9.8, 10.12, 9.82, 9.82, 9.8, 10.09, 10.12, 10.72, 10.99, 10.94, 11.28, 11.52, 11.8, 11.8, 10.88, 10.59, 10.01, 9.94, 9.71, 9.37, 9.66, 9.5, 9.76, 9.48, 9.48, 9.1, 8.93, 8.55, 8.27, 7.72, 7.61, 7.34, 6.95, 7.6, 7.84, 7.56, 6.85, 6.98, 6.55, 6.21, 5.81, 5.36, 5.36, 5.29, 5.26, 4.98, 4.98, 4.8, 4.84, 4.46, 5.09, 4.4, 5.69, 5.69, -0.0, -0.0, -0.0, -3.97, -7.07, -7.21, -8.05, 0.0, 2.69, 4.71, 8.3, 9.39, 9.66, 9.56, 10.81, 12.08, 13.68, 12.72, 10.91, 9.83, 8.48, 5.21, 5.05, 4.66, 8.0, 4.52, 4.09, 4.09, 3.49, 3.07, 3.07, 3.07, 8.24, 8.24, 8.24, 8.54, 8.87, 8.87, 8.87, 9.19, 9.19, 9.8, 9.8, 9.8, 9.8, 10.12, 10.12, 9.8, 9.8, 10.09, 10.12, 10.72, 10.94, 10.94, 10.94, 11.28, 11.52, 11.8, 11.23, 10.59, 10.23, 9.94, 9.94, 10.23, 9.86, 9.86, 9.76, 9.76, 9.63, 9.1, 9.1, 8.55, 8.27, 7.9, 7.61, 7.07, 7.34, 7.6, 7.84, 7.84, 7.56, 7.28, 6.85, 6.55, 6.65, 6.26, 5.36, 5.31, 5.29, 5.73, 5.7, 5.4, 5.2, 5.2, 5.51, 5.09, 4.8, 6.01, 6.01, -0.0, -3.4, -5.37, -7.37, -7.6, -8.05, -7.63, -6.01, 8.94, 8.94, 8.91, 8.54, 7.27, 7.52, 11.25, 13.59, 12.15, 10.99, 10.32, 9.83, 8.0, 5.37, 6.32, 5.2, 3.6, 3.72, 3.49, 3.07, 0.0, 0.0, 0.0, 8.24, 8.24, 8.24, 8.54, 8.87, 8.87, 8.87, 9.19, 9.19, 9.19, 9.8, 9.8, 9.8, 9.8, 9.8, 9.77, 9.77, 9.77, 10.4, 10.4, 10.69, 10.94, 10.94, 11.28, 11.52, 11.8, 11.23, 10.88, 10.59, 10.01, 9.94, 9.94, 10.23, 9.86, 10.13, 9.76, 10.02, 9.63, 9.1, 8.96, 8.43, 7.9, 7.61, 7.61, 7.34, 7.6, 7.84, 7.84, 7.98, 7.56, 7.28, 7.01, 6.98, 6.65, 5.81, 5.81, 5.75, 5.75, 6.17, 6.17, 6.14, 5.6, 5.2, 5.51, 5.09, 8.49, 8.05, 8.05, 8.05, -7.6, -8.05, -8.05, -8.05, -8.49, -8.94, -8.0, -0.0, 6.64, 6.01, 4.66, 5.9, 10.04, 13.19, 12.27, 10.79, 9.38, 8.6, 7.45, 2.8, 3.16, 2.98, 3.6, 3.49, 2.79, 0.96, -2.73, -2.73, -2.73, 8.24, 8.24, 8.24, 8.24, 8.87, 8.87, 8.87, 9.48, 9.48, 9.48, 9.77, 9.8, 9.8, 9.8, 9.77, 9.77, 9.77, 9.77, 10.07, 10.4, 10.4, 10.94, 10.94, 11.28, 11.52, 11.52, 11.23, 10.88, 10.59, 10.59, 10.3, 9.94, 10.23, 9.86, 10.13, 9.76, 10.02, 9.63, 9.88, 9.35, 8.96, 8.43, 8.15, 7.61, 7.87, 7.71, 7.71, 7.84, 8.06, 7.56, 7.76, 7.28, 7.01, 7.11, 6.26, 5.81, 5.81, 5.81, 6.2, 6.17, 6.17, 6.14, 6.07, 5.51, 5.09, 5.69, 5.69, 5.69, 8.05, -8.05, -8.49, -8.49, -8.49, -8.94, -8.0, -4.0, -0.0, 1.75, 2.46, 3.52, 4.66, 7.68, 9.96, 10.51, 10.3, 8.93, 6.99, 5.81, 4.92, 4.92, 4.02, 4.02, 3.35, 3.16, 1.55, -1.55, -1.55, -1.55, 8.24, 8.24, 8.24, 8.24, 8.56, 8.87, 8.87, 9.48, 9.48, 9.48, 9.77, 9.77, 9.8, 9.77, 9.72, 9.72, 10.06, 9.77, 10.36, 10.4, 10.69, 10.69, 10.94, 11.28, 11.28, 11.28, 11.23, 10.88, 10.65, 10.59, 10.23, 10.51, 10.15, 9.86, 10.13, 9.76, 10.02, 9.63, 9.88, 9.35, 9.35, 9.07, 8.68, 8.15, 7.87, 7.87, 7.71, 7.84, 8.06, 7.63, 7.76, 7.33, 7.45, 6.98, 6.71, 6.26, 5.81, 6.26, 6.26, 6.26, 6.71, 6.58, 6.14, 5.64, 5.09, 5.06, 5.37, 7.2, 5.69, 8.05, 8.94, -8.94, -8.49, -7.6, -6.01, -3.8, -0.0, -0.0, 1.2, 2.33, 4.96, 5.2, 6.53, 8.22, 9.76, 9.8, 5.81, -3.79, -4.02, -0.0, 2.84, 4.02, 4.02, 0.0, -2.48, -3.48, -3.48, -3.48, 8.54, 7.9, 8.54, 8.54, 8.24, 8.87, 8.87, 8.87, 9.48, 9.48, 9.48, 9.77, 9.48, 9.46, 9.72, 9.72, 10.06, 9.77, 10.36, 10.36, 10.36, 10.36, 10.94, 10.94, 11.28, 11.28, 11.23, 11.23, 10.65, 10.59, 10.59, 10.23, 10.51, 10.41, 10.3, 9.76, 9.63, 9.63, 9.88, 9.48, 9.6, 9.2, 9.07, 8.91, 8.4, 7.87, 8.12, 7.93, 7.43, 7.63, 7.76, 7.33, 7.45, 7.11, 7.1, 6.71, 5.81, 6.26, 6.26, 6.26, 6.71, 6.71, 6.26, 5.64, 5.09, 6.71, 7.15, 5.37, -0.0, -0.0, 8.05, -0.0, 8.94, -8.94, -7.6, -3.8, -2.54, -0.0, -0.0, 1.4, 3.8, 4.71, 5.44, 6.79, 10.6, 8.94, 4.88, 2.98, -4.4, -4.24, 4.02, 4.02, -3.58, -3.35, -3.58, -4.0, -4.0, -4.0, 7.9, 7.9, 8.24, 8.54, 8.54, 8.56, 8.87, 8.87, 9.17, 9.48, 9.48, 9.77, 9.17, 9.46, 9.46, 10.06, 10.06, 10.36, 10.36, 10.36, 10.36, 10.36, 10.94, 11.23, 11.23, 11.23, 11.23, 11.23, 10.65, 10.3, 10.59, 10.23, 10.51, 10.15, 10.41, 10.3, 10.02, 9.63, 9.48, 9.35, 9.6, 9.2, 9.2, 8.91, 8.51, 8.0, 8.22, 7.93, 7.93, 7.63, 7.81, 7.76, 7.48, 7.42, 7.11, 7.1, 6.26, 6.26, 6.26, 6.26, 6.71, 6.71, 6.71, 6.26, 5.81, 4.92, 6.71, 6.71, 6.71, 7.15, 7.15, 7.15, 5.69, -0.0, -8.4, -8.0, -0.0, -0.0, -0.0, -0.0, 3.15, 5.03, 5.69, 7.4, 12.52, 10.25, 5.64, 3.48, -2.73, -4.29, 0.0, 2.2, 0.0, -2.84, -3.16, -4.09, -4.09, -4.09, 7.9, 7.9, 8.24, 8.24, 8.54, 8.85, 8.56, 8.87, 9.17, 9.17, 9.48, 9.17, 9.46, 9.13, 9.46, 10.06, 10.36, 10.36, 10.36, 10.36, 10.65, 10.65, 10.88, 11.23, 11.23, 11.23, 11.23, 10.88, 10.65, 10.3, 10.59, 10.01, 10.3, 10.15, 10.41, 9.86, 9.76, 10.02, 9.88, 9.48, 9.6, 9.2, 9.42, 9.01, 8.91, 8.72, 8.22, 7.81, 7.93, 7.69, 7.63, 7.81, 7.76, 7.45, 7.55, 7.11, 6.65, 6.71, 6.71, 6.71, 6.71, 6.71, 6.71, 6.71, 5.81, 4.92, 7.15, 6.71, 6.71, 7.15, 7.15, 7.15, 6.71, 7.15, -8.94, -6.01, -0.0, -0.0, -0.0, -0.0, 2.06, 5.1, 6.28, 10.7, 12.52, 11.18, 6.88, 0.76, -1.13, -2.15, -1.27, 0.0, 0.0, -1.08, -2.48, -1.55, -1.55, -1.55, 7.9, 7.9, 7.9, 8.24, 8.54, 8.85, 8.85, 8.87, 9.17, 9.13, 9.17, 9.13, 9.13, 9.13, 9.46, 9.77, 10.36, 10.36, 10.36, 10.65, 10.65, 10.65, 10.88, 10.88, 11.23, 11.23, 11.23, 10.88, 10.65, 10.59, 10.23, 10.01, 9.94, 9.94, 10.23, 9.86, 10.13, 9.76, 9.63, 9.88, 9.48, 9.2, 9.42, 9.01, 8.91, 8.72, 8.3, 8.22, 8.0, 7.93, 8.12, 7.63, 7.92, 7.89, 7.45, 7.55, 7.11, 6.65, 6.71, 6.71, 6.71, 6.71, 6.71, 6.71, 6.26, 5.36, 4.92, 4.92, 7.15, 7.15, 0.0, 0.0, 0.0, 7.15, 7.15, -0.0, -0.0, -0.0, 2.69, 2.69, -0.0, 4.71, 6.99, 9.97, 11.36, 10.52, 7.37, -0.7, -1.4, -1.33, -1.27, 0.0, 0.0, -0.88, -1.19, -1.55, -1.55, -1.55, 7.9, 7.9, 7.9, 8.24, 8.24, 8.54, 8.85, 8.56, 8.85, 8.53, 8.85, 9.13, 9.13, 9.13, 9.46, 9.77, 10.09, 10.36, 10.65, 10.65, 10.65, 10.65, 10.65, 10.88, 10.88, 10.88, 10.88, 11.16, 11.16, 10.59, 10.23, 10.01, 9.94, 9.94, 9.86, 9.86, 9.76, 9.76, 9.63, 9.63, 9.48, 9.71, 9.2, 9.01, 9.01, 8.72, 8.3, 8.22, 8.42, 8.0, 7.93, 8.12, 7.76, 7.92, 7.89, 7.42, 7.55, 7.11, 7.1, 7.15, 6.71, 6.64, 6.64, 6.61, 6.58, 6.26, 5.81, 5.36, -7.15, 7.6, 0.0, 8.05, 0.0, 0.0, -8.49, -8.05, -5.37, 8.05, 8.49, 5.69, -0.0, 5.37, 6.0, 7.53, 9.4, 8.63, 4.47, -1.4, -1.16, -1.49, -0.63, 0.0, 0.0, 0.0, 0.0, 0.0, 0.0, 0.0, 7.61, 7.61, 7.9, 8.24, 8.24, 8.24, 8.53, 8.53, 8.53, 8.53, 8.85, 9.13, 9.13, 9.46, 9.17, 9.77, 9.77, 10.06, 10.3, 10.3, 10.3, 10.3, 10.65, 10.88, 11.16, 11.16, 11.16, 11.16, 10.8, 10.59, 10.23, 9.66, 9.94, 9.59, 9.86, 9.5, 9.76, 9.76, 9.63, 9.48, 9.35, 9.35, 9.2, 9.2, 9.01, 9.01, 8.72, 8.3, 8.22, 8.42, 8.0, 7.93, 7.63, 7.76, 7.76, 7.45, 7.42, 7.11, 7.1, 7.1, 7.1, 6.64, 6.64, 6.79, 7.01, 6.07, 5.81, 5.81, -5.81, 0.0, 0.0, 8.05, 0.0, -6.01, -8.49, -8.49, -8.05, 0.0, 0.0, 0.0, 7.6, 7.6, 5.64, 5.51, 7.4, 7.63, 3.58, -1.74, -1.4, -1.33, -1.11, -1.47, 0.0, 0.0, 0.0, 0.0, 0.0, 0.0, 7.91, 7.91, 7.91, 8.24, 7.93, 8.24, 8.53, 8.53, 8.82, 8.53, 8.85, 9.13, 9.46, 9.46, 9.17, 9.77, 10.06, 10.06, 10.3, 10.3, 10.59, 10.59, 10.59, 10.59, 11.16, 11.16, 11.16, 10.8, 10.8, 10.59, 10.23, 9.94, 9.94, 9.59, 9.3, 9.3, 9.58, 9.21, 9.48, 9.1, 9.1, 9.35, 8.96, 9.2, 9.2, 9.01, 8.91, 8.72, 8.63, 8.22, 8.42, 7.93, 8.06, 7.63, 7.76, 7.71, 7.45, 7.42, 6.98, 7.1, 6.94, 6.94, 6.88, 6.88, 6.79, 6.23, 5.94, 4.11, 0.0, 0.0, 0.0, 0.0, 0.0, -5.37, -8.05, 8.05, 7.6, -5.69, 0.0, 0.0, 0.0, 3.4, 6.32, 5.81, 7.08, 8.41, 4.47, 0.0, -2.53, -1.6, -2.0, -3.0, 0.0, 1.41, 1.41, 1.05, 1.05, 1.05, 7.91, 7.91, 7.91, 7.61, 8.22, 8.22, 8.22, 8.22, 8.82, 8.85, 8.85, 9.46, 9.46, 9.46, 9.46, 9.46, 9.72, 9.72, 9.72, 10.59, 10.59, 10.59, 10.59, 10.59, 10.8, 10.8, 10.8, 10.8, 10.87, 10.51, 10.51, 9.94, 9.59, 9.59, 9.3, 9.3, 9.21, 9.21, 9.48, 9.1, 9.1, 9.35, 9.35, 9.35, 9.2, 9.2, 8.68, 8.91, 8.51, 8.63, 8.22, 7.93, 7.84, 7.84, 7.56, 7.56, 7.28, 7.28, 6.98, 6.98, 6.94, 6.94, 6.88, 6.99, 6.8, 6.13, 5.6, 4.43, 0.0, 0.0, 0.0, 0.0, 0.0, 7.15, 0.0, 0.0, 0.0, 0.0, 0.0, 0.0, 0.0, 0.0, 3.8, 6.23, 7.15, 9.39, 7.6, 4.82, 0.0, -2.53, -2.3, -1.47, 0.0, 1.35, 1.84, 2.66, 2.66, 2.66, 7.6, 7.6, 7.6, 7.91, 7.91, 8.22, 8.22, 8.53, 8.82, 9.15, 8.85, 9.46, 9.46, 9.46, 9.46, 9.46, 9.72, 9.72, 10.01, 10.23, 10.23, 10.59, 10.59, 10.59, 10.59, 10.8, 11.07, 10.87, 10.51, 10.51, 10.15, 9.94, 9.59, 9.86, 9.3, 9.3, 9.21, 9.21, 8.84, 9.1, 9.1, 9.2, 9.2, 9.2, 9.2, 9.07, 9.07, 8.68, 8.91, 8.4, 8.4, 8.12, 7.84, 7.84, 7.33, 7.56, 7.47, 7.28, 7.21, 7.21, 7.12, 7.12, 7.12, 6.99, 6.8, 6.13, 5.36, 4.74, 3.72, 2.12, 2.12, 0.0, 7.6, 7.15, 0.0, 0.0, -2.54, -3.6, -5.37, -2.54, -2.54, 0.0, 3.8, 6.52, 7.52, 9.39, 9.39, 6.65, 5.81, 0.0, -1.19, -0.81, 0.0, 2.4, 2.69, 3.32, 3.32, 3.32, 7.59, 7.59, 7.3, 7.6, 7.6, 8.22, 8.22, 8.53, 8.82, 9.15, 8.85, 9.13, 9.13, 9.13, 9.13, 9.13, 9.72, 10.01, 10.01, 10.01, 10.23, 10.23, 10.23, 10.51, 10.87, 10.51, 10.51, 10.51, 10.51, 10.51, 10.15, 9.94, 9.86, 9.86, 9.3, 9.3, 9.21, 9.21, 9.21, 9.1, 8.93, 8.93, 9.2, 9.2, 9.2, 9.47, 9.47, 9.07, 9.07, 8.54, 8.4, 8.12, 8.0, 7.6, 7.73, 7.33, 7.2, 7.47, 7.35, 7.21, 7.12, 7.12, 6.8, 6.99, 6.7, 5.93, 5.06, 5.06, 5.06, 3.72, 3.97, 0.0, 8.05, 8.49, 7.15, -3.4, -5.37, -8.05, -5.37, -3.4, -1.95, 0.0, 2.99, 4.75, 6.8, 8.87, 9.39, 7.6, 6.71, 6.61, 2.98, 0.0, 1.58, 3.32, 4.6, 6.01, 6.01, 6.01, 7.28, 7.28, 7.59, 7.9, 7.6, 8.22, 8.22, 8.53, 8.82, 9.15, 8.85, 8.85, 8.85, 9.13, 9.13, 9.42, 9.42, 10.01, 10.01, 10.01, 10.23, 10.23, 10.51, 10.51, 10.51, 10.51, 10.51, 10.51, 10.51, 10.51, 10.15, 10.23, 9.86, 9.86, 9.3, 9.3, 9.21, 9.21, 8.84, 9.1, 8.93, 8.93, 9.2, 9.2, 9.58, 9.2, 9.47, 9.47, 9.07, 8.54, 8.4, 8.27, 8.12, 8.0, 7.46, 7.46, 7.2, 7.2, 7.35, 7.35, 7.35, 7.2, 7.2, 6.99, 6.99, 5.93, 5.59, 5.06, 4.29, 4.02, 5.06, 5.06, 6.71, 8.94, 7.15, -5.06, -5.37, -7.2, -5.37, -3.4, 0.0, 0.0, 2.4, 4.22, 5.95, 8.17, 8.94, 8.49, 7.6, 7.15, 7.06, 7.2, 7.6, 7.89, 8.38, 8.49, 8.49, 8.49, 7.28, 7.28, 7.59, 7.9, 7.6, 8.22, 8.22, 8.53, 8.82, 9.15, 8.85, 8.85, 8.85, 9.13, 9.13, 9.42, 9.42, 10.01, 10.01, 10.01, 10.23, 10.23, 10.51, 10.51, 10.51, 10.51, 10.51, 10.51, 10.51, 10.51, 10.15, 10.23, 9.86, 9.86, 9.3, 9.3, 9.21, 9.21, 8.84, 9.1, 8.93, 8.93, 9.2, 9.2, 9.58, 9.2, 9.47, 9.47, 9.07, 8.54, 8.4, 8.27, 8.12, 8.0, 7.46, 7.46, 7.2, 7.2, 7.35, 7.35, 7.35, 7.2, 7.2, 6.99, 6.99, 5.93, 5.59, 5.06, 4.29, 4.02, 5.06, 5.06, 6.71, 8.94, 7.15, -5.06, -6.8, -7.2, -5.37, -3.4, 0.0, 1.25, 2.09, 4.22, 5.06, 6.8, 8.41, 8.49, 8.49, 7.6, 8.05, 8.49, 8.41, 8.41, 8.41, 8.41, 8.41, 8.41]}, {"header": {"dx": 0.06612293990616946, "dy": 0.0552356325346848, "nx": 98, "ny": 59, "la1": 35.046912555036876, "la2": 31.78801023549047, "lo1": -121.43107172385933, "lo2": -114.95102361305473, "refTime": "2026040809", "parameterCategory": 1, "parameterNumber": 3}, "data": [-11.23, -11.23, -11.53, -11.9, -11.9, -11.32, -10.82, -10.86, -11.25, -11.26, -10.73, -9.66, -11.21, -10.73, -9.64, -8.4, -8.18, -6.64, -5.31, -4.47, -3.2, -2.66, -1.1, -1.1, -1.32, -2.8, -4.43, -5.21, -5.94, -6.26, -5.2, 0.0, 0.0, 1.05, 0.88, 0.0, 0.0, 0.0, -1.32, -1.73, 0.0, 0.0, 0.0, -3.98, -5.4, -6.79, -8.06, -8.74, -8.86, -8.06, -7.54, 9.3, 10.73, 10.28, 9.89, 8.55, 7.27, 5.98, 4.8, 4.8, 3.61, 3.25, 2.39, 6.64, 5.69, 4.29, 3.2, 2.67, 2.23, 2.95, 2.44, 1.62, 0.99, 0.0, 1.32, 2.06, 2.57, 2.1, 0.0, -8.8, -0.0, 1.19, 1.19, -0.0, -0.0, -0.0, -0.0, 0.0, 0.0, -2.26, -3.27, -4.96, -6.24, -6.24, -5.13, -4.71, -3.91, -3.09, -11.23, -11.44, -11.23, -11.23, -11.6, -11.9, -11.69, -11.44, -11.52, -11.6, -10.73, -10.47, -8.22, -7.59, -9.6, -9.83, -8.0, -7.27, -6.01, -4.42, -4.21, -3.17, -1.49, -0.0, -0.0, -0.0, -1.63, -3.72, -4.74, -5.58, -6.0, 0.0, 0.0, 1.84, 2.32, 1.98, 1.01, 0.0, -1.07, -2.82, -2.99, -3.65, -5.0, -7.54, -9.4, -10.68, -11.19, -10.89, -10.25, -8.95, -4.32, 10.73, 10.14, 9.46, 9.04, 8.55, 7.27, 6.69, 5.69, 4.8, 4.18, 3.87, 4.83, 6.64, 5.69, 4.75, 3.77, 2.67, 2.44, 3.11, 3.07, 3.16, 1.84, 0.0, 0.0, 1.4, 1.68, 2.1, 0.0, -8.8, -0.0, 1.19, 1.19, -0.0, -0.0, -0.0, -0.0, 0.0, 0.0, -2.26, -3.27, -4.96, -6.24, -6.24, -5.13, -4.71, -3.91, -3.09, -11.72, -11.44, -11.44, -11.44, -11.81, -11.96, -11.96, -11.72, -12.16, -11.6, -10.29, -8.67, -9.08, -7.9, -5.9, -5.46, -5.46, -9.13, -7.27, -6.95, -5.3, -5.46, -5.46, -3.6, -1.58, -0.0, -0.0, -0.0, -3.2, -4.56, -6.08, -5.37, -0.0, 7.15, 5.21, 3.4, 1.96, 0.0, 0.0, -3.52, -5.72, -8.64, -10.18, -12.84, -14.11, -14.08, -13.41, -12.09, -10.12, -7.59, 9.2, 9.64, 9.13, 9.33, 8.63, 8.54, 8.0, 6.69, 5.45, 4.18, 4.18, 4.4, 5.21, 6.32, 6.18, 5.06, 4.03, 3.91, 4.0, 4.07, 4.5, 3.76, 1.76, 0.0, -1.75, 0.0, 0.0, 1.5, 0.0, -4.8, -3.0, -0.0, -0.0, -1.3, -0.0, -0.0, 1.41, 0.0, -2.8, -3.6, -4.6, -6.05, -6.58, -6.95, -6.24, -5.3, -4.29, -3.55, -11.72, -11.44, -11.99, -11.44, -11.81, -12.17, -12.32, -12.07, -12.16, -11.54, -10.19, -9.14, -10.09, -8.55, -8.23, -8.23, -6.17, -9.6, -8.93, -6.77, -5.2, -4.75, -5.46, -5.04, -3.27, -1.67, -0.0, -0.0, -0.0, -5.37, -6.9, -6.32, -4.37, -2.06, 0.0, 0.0, 0.0, -1.62, -3.82, -6.67, -9.8, -12.84, -13.85, -13.18, -12.57, -10.84, -8.72, -6.59, -4.4, 4.2, 8.0, 8.05, 8.91, 9.03, 8.79, 8.15, 7.56, 6.4, 4.99, 3.82, 3.11, 4.4, 6.01, 6.87, 6.11, 5.0, 4.46, 5.13, 6.23, 6.11, 5.99, 4.65, 2.53, 0.0, -5.59, -7.33, -4.4, -2.28, 0.0, -3.39, -5.51, -3.16, -3.48, -0.81, -0.0, -0.0, -0.0, -2.4, -4.75, -5.28, -6.09, -6.31, -6.95, -6.64, -6.06, -4.29, -3.47, -2.88, -11.72, -11.44, -11.99, -11.99, -11.81, -11.88, -12.24, -12.32, -12.42, -11.44, -10.41, -8.93, -9.7, -8.82, -9.2, -9.6, -8.93, -7.9, -11.18, -7.27, -6.24, -4.0, -3.4, -4.21, -3.6, -3.35, -3.15, -2.69, -7.6, -7.21, -7.89, -8.15, -8.42, -8.82, -10.28, -10.18, -9.6, -8.53, -9.67, -12.56, -13.61, -12.22, -9.8, -6.63, -3.68, -1.11, 0.0, 0.0, 2.33, 4.21, 4.96, 6.98, 8.48, 8.6, 8.63, 7.21, 6.01, 5.72, 5.46, 4.4, 3.11, 4.88, 7.21, 6.45, 6.39, 5.49, 4.46, 4.56, 5.94, 6.79, 5.99, 4.71, 4.31, 3.97, 0.0, -7.74, -8.4, -4.83, -2.37, -3.07, -3.58, -2.53, -2.3, -1.11, -1.23, -2.95, -5.09, -4.47, -6.24, -7.82, -6.79, -5.13, -5.94, -4.74, -4.89, -3.22, -2.47, -2.8, -11.72, -11.72, -11.99, -11.99, -11.99, -12.09, -12.45, -12.54, -12.32, -11.44, -9.73, -8.54, -9.2, -8.23, -8.58, -8.82, -9.6, -8.73, -10.4, -10.48, -8.01, -6.79, -5.69, -4.2, -4.44, -4.94, -5.72, -7.67, -8.77, -9.39, -8.33, -9.39, -8.91, -10.75, -12.5, -12.05, -11.8, -11.04, -12.22, -13.7, -13.33, -11.64, -5.75, 0.0, 0.0, 0.0, 0.0, 0.0, 0.93, 2.28, 2.83, 4.6, 7.67, 8.48, 8.05, 6.64, 6.01, 6.01, 4.78, 3.36, 3.65, 5.21, 7.28, 5.69, 5.3, 4.6, 3.91, 3.9, 4.58, 3.8, 3.16, 2.99, 4.65, 5.6, 4.81, -2.82, -6.45, -5.21, -2.04, 0.0, -3.93, -4.84, -4.54, -3.72, -4.43, -7.52, -8.29, -7.69, -8.27, -7.97, -6.32, -6.14, -5.3, -5.21, -6.26, -4.43, -2.88, -3.09, -11.72, -11.72, -11.44, -11.99, -12.37, -12.45, -12.45, -12.54, -12.32, -10.96, -9.3, -7.87, -8.82, -6.17, -6.45, -7.27, -9.58, -8.93, -8.53, -11.61, -9.88, -10.12, -11.2, -10.92, -10.23, -10.04, -11.2, -10.79, -10.18, -8.67, -9.83, -6.32, -6.64, -9.26, -10.73, -12.52, -12.94, -11.99, -10.09, -10.99, -12.33, -11.95, -11.87, -8.85, -6.08, -3.76, -2.19, -1.56, 0.0, 0.0, 0.0, 3.32, 8.05, 8.05, 7.33, 6.64, 6.01, 5.21, 4.4, 3.36, 3.99, 5.21, 5.72, 3.77, 3.33, 3.2, 3.09, 1.84, 1.18, 0.0, 0.0, 0.0, 0.72, 1.58, 1.6, 0.93, -1.98, -3.48, 0.0, 0.0, -5.7, -7.1, -6.98, -7.21, -8.46, -9.81, -11.23, -10.68, -9.27, -8.06, -7.81, -8.23, -6.26, -0.0, -5.58, -4.89, -4.29, -3.91, -11.16, -11.72, -12.09, -12.37, -12.74, -12.45, -12.45, -12.74, -12.17, -10.59, -8.93, -8.52, -8.82, -6.71, -4.48, -3.98, -5.98, -8.01, -6.94, -4.39, -4.65, -12.39, -10.04, -13.27, -13.64, -12.62, -12.79, -12.79, -9.67, -9.09, -10.18, -11.62, -11.21, -9.97, -10.84, -12.49, -12.52, -10.45, -7.64, -9.46, -10.4, -10.84, -12.31, -13.57, -11.77, -8.75, -5.13, -3.11, -1.62, -2.23, -1.26, 1.84, 8.05, 7.81, 7.21, 7.21, 6.01, 5.46, 3.81, 2.83, 3.81, 3.7, 2.54, 1.32, 3.4, 4.14, 1.84, 0.0, -1.18, -1.73, -0.8, -0.77, -1.54, -2.34, -2.34, 0.0, 1.84, 2.29, 2.29, 1.5, 0.0, -7.76, -8.49, -8.94, -10.7, -11.75, -11.58, -10.52, -9.49, -8.55, -8.8, -4.92, -0.82, -1.03, -6.71, -5.21, -5.0, -4.56, -11.44, -11.81, -11.99, -12.37, -12.45, -12.45, -12.45, -12.74, -12.09, -10.68, -9.35, -9.55, -12.46, -12.3, -10.19, -7.82, -7.82, -7.54, -5.8, -3.96, 0.0, -2.54, -11.6, -11.5, -9.81, -10.09, -8.54, -9.08, -9.69, -9.86, -11.84, -13.41, -12.96, -11.4, -10.78, -11.21, -10.66, -10.68, -9.54, -9.2, -10.18, -10.7, -12.72, -12.51, -11.88, -10.45, -10.18, -7.47, -4.83, -4.07, -3.45, 1.75, 8.05, 8.15, 7.64, 6.64, 5.63, 4.56, 3.49, 3.49, 2.7, 2.06, 0.0, 2.4, 8.48, 5.36, 0.99, 0.0, -1.58, -1.49, -1.14, -1.47, -2.25, -2.82, -2.25, -0.89, 0.94, 1.58, 1.56, 1.36, 1.51, -4.87, -7.04, -8.38, -9.15, -9.89, -9.68, -8.55, -7.21, -4.87, -4.15, -1.35, -2.29, -4.89, -6.17, -4.81, -5.0, -4.65, -11.99, -11.99, -12.37, -12.54, -12.65, -12.45, -12.45, -12.74, -12.09, -10.3, -10.02, -10.67, -10.92, -13.44, -13.5, -12.6, -12.79, -13.43, -12.42, -11.6, -11.62, -11.62, -10.73, -12.96, -9.58, -7.21, -6.63, -8.15, -10.02, -11.62, -12.52, -14.3, -14.75, -12.96, -11.18, -8.82, -5.93, -6.8, -8.17, -9.54, -10.45, -11.23, -6.57, -5.58, -6.23, -8.91, -10.62, -9.83, -8.68, -6.24, -2.99, 6.01, 7.67, 6.87, 7.13, 6.18, 4.83, 3.88, 3.21, 2.47, 1.52, 0.76, 0.0, 7.44, 8.67, 5.69, 1.75, 1.67, 1.32, -1.58, -1.4, -2.21, -2.82, -2.71, -1.45, -0.85, -1.11, -1.84, -1.43, -0.68, 0.0, 0.72, -7.07, -6.55, -5.86, -5.75, -5.46, -4.46, -3.79, -3.16, 1.27, -0.88, -3.79, -5.75, -6.26, -5.43, -5.72, -5.09, -11.99, -11.99, -12.54, -12.27, -12.27, -12.65, -12.45, -12.37, -11.72, -10.83, -10.68, -11.06, -11.26, -12.39, -13.57, -13.99, -15.47, -14.61, -14.56, -14.7, -16.37, -16.54, -15.55, -13.23, -10.4, -6.32, -8.23, -8.72, -10.79, -13.8, -13.41, -12.83, -11.62, -11.44, -11.4, -11.18, -10.21, -8.0, -6.4, -6.08, -7.5, -7.15, 7.15, 8.05, 8.05, -7.15, -7.6, -7.6, -8.05, -8.05, -0.0, 8.06, 6.01, 5.59, 5.2, 4.96, 3.88, 2.28, 0.78, 0.0, 0.0, 0.0, 1.75, 9.11, 7.89, 5.03, 3.27, 3.27, 2.09, 0.0, -2.97, -3.46, -3.47, -2.88, -1.63, -1.63, -2.7, -4.2, -4.2, -4.68, -3.41, -1.38, 0.0, -7.68, -7.47, -4.65, -4.19, -3.0, -0.96, 0.0, 0.0, -4.0, -4.57, -5.64, -6.26, -6.36, -6.25, -6.21, -11.99, -11.99, -12.16, -12.27, -12.27, -12.27, -12.65, -12.37, -11.72, -10.96, -10.96, -11.34, -11.9, -11.69, -10.55, -10.87, -11.2, -13.42, -14.84, -15.47, -14.5, -13.36, -11.57, -11.28, -7.15, -5.58, -4.43, -2.53, -3.84, -6.64, -8.49, -6.71, -0.0, -4.46, -10.2, -10.28, -10.12, -7.63, 0.0, 8.49, 8.05, 8.05, 7.6, 7.6, 5.06, -1.23, -1.73, -1.4, -0.0, -0.0, -4.22, -8.05, 0.0, 1.58, 2.69, 2.98, 2.35, 1.54, 0.0, -0.85, -1.6, -2.17, 6.64, 8.67, 8.67, 5.03, 4.22, 4.6, 3.15, 0.0, -2.35, -3.46, -3.61, -2.71, -2.02, -2.71, -2.82, -4.78, -6.05, -6.29, -5.3, -3.11, -0.75, 0.0, -1.67, -3.8, -4.6, -4.4, -2.21, -0.95, -0.7, -1.8, -2.84, -5.26, -6.65, -6.07, -6.51, -6.88, -11.99, -11.99, -11.99, -12.27, -12.27, -12.27, -12.37, -11.99, -12.27, -11.34, -11.24, -11.44, -11.81, -11.64, -11.44, -10.34, -9.8, -9.66, -10.4, -11.44, -10.68, -8.72, -7.85, -5.59, -4.11, -4.92, 1.41, 2.84, 1.84, -0.51, -1.66, 2.8, 5.37, 5.81, 0.0, -3.0, -6.0, 7.6, 7.6, 8.05, -0.0, -6.4, -6.26, -5.2, -4.8, -2.95, -4.11, -4.02, -4.83, -5.69, -6.4, -7.52, -8.49, -7.89, -5.63, -3.32, -1.25, 1.0, 0.0, -1.05, -3.52, -4.0, 4.0, 2.83, 8.49, 4.22, 3.72, 4.16, 3.77, 3.4, 0.0, -1.25, -2.09, -1.95, -2.7, -3.29, -3.42, -4.44, -5.95, -6.17, -4.87, -4.83, -4.31, -3.76, 0.0, 0.0, -2.95, -4.6, -3.8, -2.33, -0.74, -1.35, -1.27, -2.76, -5.24, -5.58, -6.23, -6.51, -11.99, -11.99, -11.72, -11.9, -12.27, -12.27, -12.37, -11.99, -11.99, -11.62, -11.62, -11.72, -11.88, -12.24, -12.02, -11.01, -9.77, -8.57, -9.06, -9.56, -8.86, -8.73, -9.3, -9.32, -6.7, -5.64, -0.0, 1.58, 2.61, 2.16, 1.07, 0.88, 2.26, 5.6, 6.0, 5.58, 4.74, 5.37, 5.37, 0.0, -7.6, -6.71, -8.05, -7.98, -4.92, -5.6, -5.34, -7.81, -7.81, -7.74, -8.6, -8.94, -9.83, -11.12, -10.04, -7.56, -6.23, -1.32, 0.0, 0.0, -8.94, -8.91, -4.96, -4.71, -5.95, -6.71, 0.0, 2.8, 6.32, 5.6, 6.71, 6.71, 6.0, 0.0, -2.09, -3.51, -4.07, -3.8, -4.83, -4.71, -4.74, -6.01, -7.09, -6.94, -2.89, -2.71, -2.42, -5.29, -3.4, -1.1, 0.0, -0.67, -1.3, -1.7, -2.47, -3.0, -2.32, -3.0, -11.99, -11.99, -11.72, -11.72, -11.72, -12.09, -12.09, -12.37, -11.99, -11.99, -11.72, -11.72, -12.09, -11.93, -12.31, -11.7, -10.65, -9.87, -8.99, -9.11, -8.66, -7.9, -7.78, -8.61, -9.66, -9.89, -3.97, 0.88, 0.99, 1.13, 1.11, 0.51, -0.0, -0.0, 7.15, 0.0, 0.0, 0.0, 0.0, -7.15, -6.79, -7.6, -7.6, -6.71, -0.0, 0.0, -7.6, -6.71, -6.36, -7.95, -9.16, -9.83, -9.6, -7.54, -7.15, -8.05, -6.71, -4.0, -1.23, 0.0, -2.54, -5.69, -6.08, -7.06, -7.21, -7.01, -6.71, -4.74, 2.8, 7.15, 6.65, 7.15, 6.71, 5.51, 0.0, -2.4, -2.54, -3.17, -3.4, -3.99, -4.22, -5.06, -5.86, -5.18, -4.71, -5.9, -4.8, -1.69, 1.84, 1.49, 0.0, -0.74, -1.52, -1.47, -0.89, -1.1, -1.84, -1.84, -11.99, -11.99, -11.72, -11.72, -11.72, -11.72, -11.72, -12.37, -12.37, -11.99, -11.72, -12.09, -11.8, -12.16, -12.31, -12.02, -11.38, -10.02, -9.5, -9.12, -8.85, -8.1, -7.34, -6.9, -7.78, -9.16, -8.8, 0.0, 4.11, 4.92, 2.84, 1.13, 0.76, 5.06, 7.15, 4.74, 0.0, 0.0, 0.0, -7.6, -6.71, -6.71, -0.0, 4.74, 6.0, 8.05, 7.6, 7.15, 0.0, -6.71, -6.71, -7.15, -6.94, -6.71, -6.26, -6.26, -6.71, -6.64, -3.6, 0.0, -0.0, -0.0, -6.4, -6.94, -6.79, -7.06, -6.26, -8.05, 7.6, 6.58, 6.4, 6.61, 6.14, 5.95, 3.4, 0.0, 2.83, 0.0, -2.17, -3.8, -4.0, -3.6, -3.0, -2.4, -2.54, -2.16, -3.6, 0.0, 3.68, 2.32, 0.94, -1.41, -0.88, -0.78, -1.36, -1.36, -2.29, -2.29, -11.81, -11.72, -11.72, -11.35, -11.72, -11.72, -11.72, -12.09, -12.09, -12.09, -12.09, -12.09, -11.8, -11.87, -11.97, -11.99, -11.06, -10.1, -9.73, -9.66, -8.96, -8.25, -7.69, -6.08, -4.77, -4.06, -2.08, 0.0, 0.98, 0.0, 0.0, 0.0, 4.47, 7.15, 5.81, 6.71, 4.74, -0.0, -0.0, -4.74, -4.11, -1.3, -0.0, -0.0, 8.05, 8.05, 8.05, 7.6, 7.15, 7.15, 0.0, 0.0, 7.15, 7.15, 7.15, 0.0, -5.69, 0.0, 0.0, 0.0, 0.0, 8.49, 7.6, 0.0, -7.15, -6.07, -7.15, -7.15, -0.0, 4.74, 3.97, -0.0, 0.0, 0.0, 0.0, 8.49, 9.21, 9.2, 7.27, 6.64, 0.0, 0.0, -2.54, -2.51, -2.4, -1.03, 0.0, 2.3, 0.88, 0.0, -0.89, -0.94, -1.98, -2.82, -2.23, -2.66, -2.29, -2.29, -11.81, -11.52, -11.52, -11.35, -11.35, -11.72, -11.72, -11.72, -12.09, -12.09, -12.09, -12.09, -11.8, -11.87, -11.63, -10.72, -10.75, -10.13, -9.21, -8.78, -7.69, -7.69, -6.99, -5.33, -2.18, -0.79, 0.0, 0.0, 0.0, 0.0, -0.93, -1.18, 0.0, 3.13, 3.53, 5.26, 3.79, -0.0, -2.8, -2.8, -0.0, -0.0, -3.2, -5.37, -0.0, 0.0, 0.0, 8.05, 8.05, 8.05, 8.05, 7.63, 7.6, 7.6, 0.0, 0.0, 0.0, 8.94, 0.0, 0.0, 0.0, 6.01, 8.05, 7.6, 7.15, 6.26, -4.43, -6.94, -7.6, -0.0, -2.4, -6.32, -8.06, -8.48, -2.97, 7.44, 9.39, 8.43, 6.95, 6.01, 5.95, 2.12, -1.32, -3.0, -3.2, -3.68, -4.22, 0.0, -0.83, -2.18, -1.84, -1.0, -1.84, -3.77, -3.69, -3.0, -2.88, -2.88, -11.52, -11.52, -11.16, -11.16, -11.35, -11.35, -11.72, -11.44, -11.8, -12.09, -12.09, -12.09, -11.8, -11.52, -11.52, -12.22, -10.4, -10.45, -8.59, -6.5, -6.0, -6.84, -7.23, -6.64, -3.73, -3.2, -1.64, -2.56, -2.63, -3.68, -3.25, -3.6, -2.8, 3.13, 2.4, 3.45, 2.68, -0.0, -1.32, -2.54, -0.0, -0.0, -0.0, -0.0, -0.0, 0.0, 0.0, 8.49, 8.49, 8.49, 8.49, 8.05, 8.05, 7.6, 8.05, 0.0, 0.0, 0.0, 0.0, 0.0, 0.0, 6.01, 8.05, 6.36, 6.0, 5.6, -6.71, -5.72, -5.93, -6.32, -6.95, -4.8, -2.37, -6.7, -7.9, -0.0, 0.0, 2.97, 2.17, 3.6, 2.12, 0.0, -2.32, -3.72, -5.15, -6.45, -7.33, -7.9, -6.2, -6.23, -4.26, -2.69, -3.27, -4.56, -3.79, -3.0, -3.11, -3.11, -11.52, -11.52, -11.16, -11.16, -11.16, -11.16, -11.72, -11.44, -11.8, -11.8, -12.09, -12.09, -11.8, -11.52, -11.52, -10.69, -10.72, -10.69, -9.23, -8.21, -7.98, -7.26, -7.88, -9.39, -9.87, -9.22, -8.72, -7.19, -7.44, -6.41, -6.3, -6.01, -6.26, -0.0, 1.49, 1.61, 2.0, 0.88, -0.0, -1.23, -0.0, 3.72, 5.21, 4.11, -0.0, 0.0, 0.0, 6.01, 8.49, 8.05, 8.05, 8.05, 7.6, 8.05, 7.15, 5.69, 0.0, 0.0, 0.0, 0.0, 0.0, 8.05, 8.05, 6.8, 5.6, 4.43, 0.0, -5.06, -2.82, 0.0, 2.7, 2.08, 1.77, 0.0, -4.71, -8.53, -9.58, -8.82, -1.95, 0.0, 0.0, 0.0, -1.32, -2.16, -3.91, -4.29, -4.43, -3.22, -7.52, -6.32, -5.77, -5.89, -4.83, -5.37, -5.43, -5.06, -4.65, -4.65, -11.16, -11.52, -11.16, -11.16, -11.16, -11.16, -11.72, -11.44, -11.8, -11.8, -11.8, -11.8, -11.8, -11.52, -11.87, -10.99, -10.72, -10.36, -9.94, -11.33, -11.52, -9.97, -9.97, -10.06, -10.75, -10.78, -10.12, -10.12, -8.85, -7.59, -6.32, -6.26, -4.4, -0.0, -0.0, 0.79, -0.0, -0.0, -0.0, -0.0, -0.0, 3.72, 4.43, 4.11, 3.79, -0.0, -0.0, 6.01, 6.01, 8.05, 7.6, 7.6, 7.6, 7.6, 8.05, 0.0, 3.8, 0.0, 0.0, 0.0, 0.0, 5.69, 3.6, -0.0, -0.0, -0.0, -0.0, 0.0, 4.22, 6.28, 6.32, 6.0, 4.1, 0.0, -5.18, -9.53, -10.16, -10.27, -8.72, -6.32, -2.26, 0.0, 1.52, 2.98, 4.11, 0.0, 0.0, 0.0, 0.0, -2.64, -6.01, -7.35, -6.42, -5.0, -5.69, -5.36, -4.74, -4.74, -11.16, -11.16, -11.16, -11.16, -11.16, -11.16, -11.16, -11.44, -11.8, -11.52, -11.52, -11.8, -11.8, -11.8, -11.28, -11.33, -10.72, -10.09, -10.3, -11.33, -11.7, -11.05, -10.72, -10.72, -10.72, -10.7, -9.66, -9.36, -8.75, -6.32, -0.0, -1.8, -2.84, -1.8, -0.0, -0.0, -0.0, -0.0, -0.0, -0.0, 1.41, 2.6, 3.22, 3.79, 3.48, 2.4, -0.0, 5.69, 5.69, 7.6, 7.15, 7.6, 7.6, 7.6, 7.6, 0.0, 8.05, 8.49, 0.0, 0.0, 3.4, 4.22, 5.37, 3.4, -0.0, -0.0, -0.0, -0.0, 6.71, 8.05, 7.15, 5.29, 4.88, 2.49, -7.12, -10.68, -11.09, -10.99, -10.84, -8.82, -6.79, 0.0, 2.8, 6.26, 6.26, 4.43, -0.0, -5.2, -3.97, -2.44, -5.28, -6.92, -6.17, -4.67, -3.79, -4.19, -4.11, -4.11, -11.16, -11.16, -11.16, -11.16, -11.16, -11.16, -11.16, -11.23, -11.44, -11.52, -11.87, -11.87, -11.52, -11.52, -11.28, -11.33, -10.72, -9.8, -10.09, -10.72, -10.73, -10.08, -9.46, -9.78, -10.75, -10.4, -10.01, -8.95, -6.71, -5.69, -0.0, -0.0, -3.48, -4.4, -3.48, -2.4, -1.84, -1.84, -0.0, -0.0, -0.0, 1.99, 2.76, 2.95, 3.16, 2.73, 3.6, 3.4, 5.06, 5.06, 7.6, 7.6, 7.6, 7.6, 7.6, 7.6, 5.06, -0.0, -0.0, 0.0, 5.37, 5.69, 7.2, 7.6, -0.0, 6.71, 0.0, 0.0, -0.0, 0.0, 0.0, 0.0, 6.26, 6.26, -5.36, -8.77, -10.32, -10.17, -9.75, -9.29, -6.71, -7.15, 0.0, 0.0, -0.0, -4.74, -6.71, -7.06, -6.18, -5.86, -6.11, -7.59, -6.92, -3.12, -0.98, -2.2, -2.98, -2.98, -11.16, -11.16, -11.16, -11.16, -11.16, -11.16, -10.88, -11.23, -11.44, -11.52, -11.87, -11.87, -11.87, -11.52, -11.63, -10.99, -10.72, -10.12, -9.8, -10.13, -9.84, -9.12, -8.49, -8.15, -9.13, -10.07, -10.07, -8.84, -6.92, -5.06, -4.2, -8.05, -7.15, -6.26, -6.26, -6.26, -4.74, -3.0, -1.98, -0.0, -0.0, 1.05, 1.83, 2.53, 2.3, 1.66, 3.4, 3.4, 3.4, 5.69, 6.01, 8.05, 7.6, 7.6, 7.6, 7.15, 6.26, -0.0, -0.0, 0.0, 5.81, 0.0, 0.0, 0.0, 4.43, 5.36, 0.0, 0.0, 0.0, -7.6, -7.15, -5.81, 0.0, 0.0, -5.81, -5.81, -7.21, -8.4, -8.0, -6.8, -6.58, -6.26, -6.71, -6.71, -7.21, -7.15, -7.15, -6.88, -6.4, -5.09, -5.86, -4.43, -3.79, -1.66, 0.0, -1.55, -1.94, -1.94, -10.94, -10.94, -11.16, -11.16, -10.8, -10.8, -10.88, -11.23, -11.23, -11.52, -11.87, -11.58, -11.58, -11.58, -11.33, -11.33, -10.4, -10.4, -10.12, -10.13, -10.13, -9.49, -8.46, -8.08, -7.85, -8.74, -9.31, -8.95, -7.93, -6.2, -5.7, -4.4, -6.32, -5.37, -6.4, -6.4, -7.6, -6.8, -5.06, -1.98, -0.0, 1.05, 1.83, 2.53, 2.53, 1.83, 1.14, -0.0, 1.4, 3.2, 3.0, 6.01, 5.37, 7.6, 7.6, 7.15, 6.71, -0.0, -0.0, 0.0, 0.0, 0.0, -5.81, 0.0, 5.36, 0.0, 0.0, 0.0, -0.0, -7.15, -6.7, -4.56, -1.4, 0.0, 0.0, 0.0, -2.6, -4.74, -4.83, -4.47, -5.24, -5.81, -6.07, -6.71, -7.37, -7.15, -7.15, -7.1, -6.88, -5.6, -2.8, -2.82, -2.16, -1.05, -0.81, -1.35, -1.47, -1.47, -10.94, -10.94, -10.59, -10.8, -10.8, -10.8, -10.88, -11.23, -11.58, -11.52, -11.52, -11.58, -11.58, -11.92, -11.92, -11.33, -10.72, -10.4, -10.72, -10.75, -10.43, -10.13, -9.12, -8.46, -8.08, -7.99, -8.66, -8.66, -8.42, -7.26, -6.86, -5.69, -4.4, -4.6, -4.46, -4.46, -6.7, -8.05, -7.6, -5.06, -0.0, -0.0, 1.3, 2.4, 2.4, 1.05, -0.0, -0.0, 1.4, 2.66, 3.68, 3.76, 5.37, 6.8, 6.8, 6.8, 7.15, 6.71, 0.0, -7.6, -7.6, 0.0, 0.0, 0.0, 0.0, 0.0, 0.0, -0.0, -0.0, -0.0, -7.21, -6.64, -2.09, 0.0, 0.79, 2.69, 2.98, -1.84, -4.47, -4.75, -4.47, -5.21, -5.2, -6.26, -6.51, -6.94, -7.6, -7.6, -7.15, -6.26, -6.26, 0.0, -2.12, -2.8, -1.94, -2.11, -1.35, -1.35, -10.59, -10.59, -10.59, -10.59, -10.3, -10.65, -10.88, -11.23, -11.58, -11.28, -11.52, -11.58, -11.58, -11.63, -11.63, -11.33, -10.72, -10.72, -10.71, -10.75, -10.76, -10.13, -9.49, -8.85, -8.46, -8.64, -8.58, -8.66, -8.42, -7.78, -6.98, -6.05, -6.14, -5.38, -4.96, -4.94, -4.71, -6.01, -6.79, -7.21, -7.15, -4.43, -0.0, 1.3, 1.84, -0.0, -0.0, -0.0, -0.0, 2.49, 3.45, 3.91, 4.11, 3.84, 4.43, 5.58, 6.8, 6.71, 6.26, 0.0, -7.6, -7.6, 0.0, 0.0, 0.0, 0.0, -8.94, -0.0, -3.4, -7.15, -7.37, -6.9, -5.31, -2.21, 0.72, 3.09, 3.0, 0.0, -5.59, -5.95, -5.06, -4.46, -4.46, -5.81, -5.94, -5.94, -7.6, -7.37, -5.06, -3.72, -5.6, -1.98, -1.98, -4.19, -4.01, -2.98, -2.66, -2.66, -10.59, -10.59, -10.59, -10.59, -10.3, -10.65, -10.88, -11.23, -11.28, -11.28, -11.52, -11.87, -11.58, -11.63, -11.63, -11.36, -10.99, -10.72, -11.03, -11.06, -10.76, -9.84, -9.49, -9.12, -8.85, -9.02, -9.3, -8.94, -8.37, -8.12, -7.08, -6.51, -5.52, -5.26, -5.13, -4.96, -5.36, -5.44, -6.01, -6.44, -7.21, -6.71, -0.0, 4.11, 2.8, -0.0, -4.74, -1.63, -0.0, 1.23, 3.76, 4.11, 4.19, 3.84, 3.84, 5.21, 6.8, 7.15, 6.26, 0.0, -6.4, -5.69, -5.37, 0.0, 0.0, -9.83, 0.0, -0.0, -5.37, -7.6, -7.63, -6.9, -6.63, -6.98, -3.91, 0.0, 0.96, 0.0, -6.51, -6.0, -4.74, -4.37, -4.29, -4.34, -0.0, -1.7, -4.43, -5.06, -5.06, -6.79, -7.15, -3.72, -1.03, -2.6, -4.89, -4.46, -4.11, -4.11, -10.59, -10.59, -10.59, -10.3, -10.3, -10.65, -10.65, -10.94, -11.28, -11.28, -11.28, -11.52, -11.58, -11.63, -11.63, -11.63, -11.03, -10.72, -10.72, -10.75, -10.76, -9.84, -9.84, -9.22, -8.85, -9.14, -8.96, -8.94, -8.66, -7.73, -7.08, -6.05, -5.52, -5.26, -5.26, -5.59, -5.49, -5.82, -6.32, -6.01, -6.08, -6.36, -5.81, -0.0, -0.0, -0.0, -2.6, -3.47, -0.0, 1.63, 3.76, 4.29, 3.93, 4.22, 4.22, 3.58, 4.74, 7.15, 6.26, 0.0, -3.0, -2.4, -3.2, -8.05, 0.0, 0.0, 0.0, -0.0, -0.0, -5.69, -8.05, -4.14, -4.71, -7.28, -8.58, -7.44, -3.76, 0.0, -4.74, -4.98, -4.11, -3.83, -4.43, -3.93, 3.16, 2.0, -2.4, -5.01, -6.71, -6.71, -6.51, -5.58, -2.32, -0.89, -3.22, -5.21, -5.43, -5.43, -10.59, -10.59, -10.59, -10.59, -10.3, -10.65, -10.65, -10.94, -11.28, -11.28, -11.28, -11.52, -11.58, -11.92, -11.63, -11.63, -11.36, -10.75, -11.05, -10.43, -10.45, -10.45, -10.13, -9.84, -9.5, -8.86, -9.09, -8.94, -8.73, -7.8, -6.71, -6.17, -5.46, -5.21, -5.63, -5.94, -5.86, -6.64, -5.82, -6.01, -6.28, -5.72, -5.81, -5.36, -0.0, -0.0, -5.37, -3.35, -1.8, 1.8, 3.72, 4.34, 4.4, 4.4, 4.4, 4.0, 4.15, 4.24, 6.07, 4.43, -0.0, -1.84, -3.4, -3.8, -0.0, 5.69, 3.6, 6.01, 4.43, -6.8, -8.05, -5.37, -2.21, -3.32, -7.27, -8.03, -7.56, -4.29, -1.7, -4.43, -3.84, -4.12, -4.42, -4.11, 0.0, 1.8, -0.0, -2.68, -4.0, -4.34, -4.92, -5.81, -2.98, 0.0, 0.0, -2.12, -3.91, -3.91, -10.59, -10.59, -10.59, -10.3, -10.3, -10.65, -10.36, -10.69, -11.28, -11.28, -11.28, -11.28, -11.87, -11.58, -11.63, -11.63, -11.36, -11.03, -10.75, -10.43, -9.84, -10.13, -10.13, -9.84, -9.84, -9.5, -9.46, -9.08, -8.01, -7.02, -6.76, -6.81, -6.11, -5.6, -5.34, -5.63, -5.94, -6.64, -6.64, -5.82, -5.69, -5.59, -5.21, -5.36, -3.79, -5.37, -6.79, -4.24, -2.53, 2.84, 4.02, 4.47, 4.47, 4.77, 4.77, 4.77, 4.15, 4.4, 4.46, 3.76, -0.0, -1.84, -2.69, -3.8, 0.0, 7.6, -0.0, -5.37, -4.43, -4.43, -5.51, -5.51, -3.72, 0.0, -1.56, -5.63, -6.42, -5.72, -3.72, -2.99, -5.24, -4.09, -4.07, -4.12, -5.36, -0.0, -0.0, -0.0, -0.0, -0.0, -0.0, -0.0, 0.0, 0.0, 0.0, 0.0, 0.0, 0.0, -10.59, -10.59, -10.59, -10.3, -10.3, -10.65, -10.36, -10.69, -11.28, -11.28, -11.28, -11.28, -11.28, -11.58, -11.63, -11.63, -11.36, -11.36, -11.06, -10.13, -10.13, -9.79, -10.13, -9.84, -9.84, -9.84, -10.11, -9.48, -8.02, -6.5, -7.14, -7.14, -6.9, -5.98, -5.32, -5.6, -6.23, -6.58, -6.24, -5.89, -5.53, -5.37, -4.74, -4.11, -5.6, -7.15, -6.71, -6.26, 0.0, 6.26, 5.2, 5.09, 4.92, 4.02, 4.02, 4.77, 4.77, 4.15, 3.49, 2.48, -0.0, -0.0, -0.0, -0.0, 8.49, 8.05, 7.15, -7.6, -5.95, -4.02, -4.98, -7.06, -8.0, -1.47, 0.0, -1.7, -4.2, -4.58, -3.63, -3.11, -4.46, -8.05, -7.51, -4.43, -6.8, -5.37, -0.0, -0.0, 0.81, 0.79, 1.49, 1.6, 2.48, 5.36, 1.52, 2.49, 3.0, 3.0, -10.59, -10.59, -10.59, -10.3, -10.3, -10.65, -10.36, -10.69, -10.72, -10.99, -11.28, -11.28, -11.28, -11.28, -11.58, -11.03, -11.36, -10.75, -10.45, -10.13, -10.43, -10.08, -10.08, -9.79, -9.5, -10.13, -10.12, -9.8, -8.84, -8.07, -7.56, -7.26, -6.7, -6.34, -5.7, -5.46, -5.9, -6.23, -6.28, -6.24, -5.89, -5.24, -4.58, -4.74, -4.43, -3.97, -4.46, -2.4, 0.0, 2.26, 4.74, 5.21, 5.09, 4.66, 4.47, 4.02, 4.02, 4.34, 3.6, 3.16, 1.19, -0.0, 0.0, 7.6, 8.05, 7.37, 7.37, 0.0, -7.2, -4.46, -6.7, -8.49, -8.05, -6.01, -3.08, -1.05, -2.7, -5.37, -3.4, -1.96, -1.2, 0.0, -2.6, -1.93, -4.14, -6.79, -7.15, -1.6, 1.7, 2.0, 2.68, 2.15, 2.53, 4.0, 4.92, 3.76, 3.91, 3.91, -10.23, -10.23, -10.59, -10.3, -10.3, -10.65, -10.36, -10.69, -10.4, -10.99, -10.99, -11.28, -11.28, -11.28, -11.33, -11.33, -10.99, -10.43, -10.43, -10.43, -10.13, -9.77, -9.77, -9.79, -9.79, -9.8, -10.12, -9.8, -9.8, -9.17, -8.21, -6.98, -6.98, -6.7, -6.34, -5.7, -5.08, -5.63, -6.28, -6.24, -5.94, -5.3, -4.95, -4.58, -4.19, -4.02, -3.4, -1.84, 0.0, 0.0, 4.22, 3.72, 5.21, 5.51, 5.09, 4.24, 3.82, 4.02, 4.02, 3.82, -0.0, 0.0, 8.05, 8.05, 6.79, 5.95, 6.4, 6.0, 0.0, -8.05, -8.05, -8.94, -8.24, -6.55, -6.7, -4.12, -1.58, 2.1, 5.52, 2.7, 1.14, 0.0, -1.45, -1.45, -3.25, -2.99, -3.91, -2.68, 0.0, 4.47, 3.82, 2.98, 1.9, 3.2, 4.47, 3.79, 3.49, 3.49, -10.23, -10.23, -10.59, -10.3, -10.3, -10.3, -10.36, -10.69, -10.4, -10.72, -10.99, -10.99, -11.28, -11.28, -10.99, -10.94, -10.4, -10.43, -10.45, -10.76, -10.13, -10.13, -9.77, -9.77, -9.42, -9.44, -10.12, -10.13, -9.8, -9.17, -7.85, -6.98, -6.98, -6.7, -6.34, -6.08, -5.72, -5.6, -5.63, -5.26, -5.59, -4.94, -5.0, -4.65, -3.55, -3.0, -3.2, -2.4, 0.0, 0.0, 1.84, 3.97, 3.97, 5.21, 4.84, 4.46, 4.66, 4.24, 3.82, 4.24, 4.47, 7.6, 7.6, 8.05, 8.05, 5.69, 5.06, 6.4, -0.0, -6.8, -5.95, -8.49, -7.15, -5.49, -5.95, -3.68, 1.2, 5.6, 6.21, 3.96, 0.93, -1.02, -2.46, -3.35, -2.54, -1.52, -1.6, -1.7, 0.0, 0.0, 3.16, 4.02, 3.13, 3.58, 0.0, 0.0, 1.7, 1.7, -10.01, -10.01, -10.59, -10.3, -10.3, -10.3, -10.36, -10.36, -10.4, -10.4, -10.99, -10.99, -10.99, -10.99, -10.99, -11.28, -10.4, -10.43, -10.45, -10.47, -10.47, -10.13, -10.13, -9.77, -9.39, -8.75, -9.42, -10.46, -9.48, -9.17, -8.21, -6.98, -6.7, -6.34, -6.34, -6.35, -5.72, -5.32, -5.6, -5.21, -5.26, -4.61, -4.67, -3.47, -3.2, -3.2, -2.51, -2.09, -1.25, 0.0, 1.49, 3.2, 3.72, 3.47, 4.11, 4.46, 4.09, 3.72, 3.35, 4.24, 4.24, 4.92, 8.05, 5.06, 8.05, 8.94, 7.2, 7.63, 5.69, -5.37, -7.6, -7.15, -6.64, -2.04, -2.6, -1.92, 1.07, 3.53, 3.23, 1.46, 0.0, -0.94, -2.8, -2.95, -1.83, 0.0, 0.0, 0.0, 0.0, 0.0, 0.0, 1.27, 1.6, 0.0, 0.0, -2.0, 0.0, 0.0, -10.01, -10.01, -10.35, -10.06, -10.06, -10.06, -10.36, -10.36, -10.4, -10.4, -10.4, -10.99, -10.72, -10.99, -10.99, -11.28, -10.4, -10.43, -10.45, -10.47, -10.47, -10.13, -9.84, -9.84, -9.21, -9.42, -9.46, -9.76, -9.48, -9.17, -8.21, -6.98, -6.7, -6.61, -6.34, -6.08, -5.72, -5.72, -5.08, -4.92, -4.5, -4.32, -3.68, -3.15, -2.12, -2.06, -2.4, -1.65, -0.94, 0.0, 0.0, 1.32, 1.63, 3.47, 3.22, 2.98, 2.73, 3.72, 3.72, 3.16, 3.16, 4.4, 8.05, 7.15, 0.0, 8.94, 8.05, 7.81, 7.63, -0.0, -5.06, -6.4, 0.0, 0.0, 0.0, -1.84, -3.3, -2.47, -2.28, -2.02, -1.45, -1.05, -0.88, -1.27, 0.0, 0.0, 0.0, 0.7, 0.0, 0.0, 0.0, 0.0, 0.0, 0.0, -1.27, -1.41, -1.19, -1.41, -10.01, -10.01, -10.01, -10.06, -10.06, -10.06, -10.09, -10.36, -10.4, -10.4, -10.4, -10.4, -10.4, -10.4, -10.4, -11.28, -10.69, -10.43, -10.45, -10.76, -10.13, -10.13, -10.13, -9.84, -9.48, -9.49, -9.16, -9.48, -9.46, -9.17, -8.52, -7.26, -6.98, -6.33, -6.33, -6.34, -5.72, -5.72, -5.08, -4.92, -4.24, -3.8, -3.42, -2.54, -1.4, -1.36, -2.0, -2.18, -1.65, 0.0, 0.0, 0.0, 1.52, 1.52, 1.84, 2.98, 2.73, 2.48, 2.48, 3.16, 3.16, 3.48, 8.05, 7.15, 0.0, 8.94, 7.6, 7.21, 7.21, 7.6, -0.0, -5.69, 0.0, 0.0, 0.82, 0.0, -2.46, -5.76, -6.94, -5.6, -3.37, -1.84, 0.0, 0.0, 0.96, 0.81, 0.76, 0.67, 0.61, 0.7, 0.0, 0.0, -0.88, -0.98, -1.8, -2.0, -1.99, -1.19, -10.01, -10.01, -10.01, -10.06, -10.06, -10.06, -9.77, -10.09, -10.4, -10.4, -10.4, -10.4, -10.4, -10.4, -10.4, -10.66, -10.69, -10.4, -10.75, -10.45, -10.13, -9.84, -9.49, -9.49, -9.21, -9.22, -8.86, -8.87, -8.83, -9.15, -8.49, -7.9, -7.26, -6.33, -6.33, -5.95, -5.7, -5.72, -5.08, -5.08, -4.69, -4.03, -3.4, -3.0, -2.33, -1.22, -1.95, -2.18, -1.84, 0.0, 0.0, 0.0, 0.0, 0.0, 1.84, 2.98, 2.73, 2.48, 2.48, 2.48, 3.16, 3.48, 3.79, 8.05, 0.0, 8.05, 7.6, 6.8, 6.8, 8.05, 7.6, -5.37, -8.49, -4.0, 0.0, 3.11, 2.44, -1.84, -5.38, -5.7, -2.72, -0.7, 0.0, 1.6, 1.47, 1.6, 0.78, 0.78, 0.72, 0.72, 0.0, 0.0, -0.73, -0.87, -1.8, -2.2, -2.76, -1.99, -10.01, -10.01, -10.01, -10.01, -10.06, -10.06, -9.77, -10.09, -9.8, -10.12, -10.4, -10.4, -10.4, -10.4, -10.4, -10.4, -10.12, -9.8, -10.75, -10.45, -10.13, -9.84, -9.49, -9.49, -9.22, -8.85, -8.86, -9.17, -8.54, -8.54, -8.17, -7.89, -7.24, -6.97, -6.33, -5.69, -5.7, -5.7, -5.72, -5.08, -4.92, -4.45, -4.05, -3.42, -3.64, -3.3, -2.26, -1.84, -1.72, -1.32, 0.0, 0.0, 0.0, 0.0, 1.84, 1.7, 2.98, 2.48, 2.73, 2.73, 2.48, 3.16, 7.6, 5.37, 5.69, 8.05, 7.6, 8.49, 7.6, 8.05, 8.05, -0.0, -8.49, -8.06, -2.06, 2.4, 2.99, 0.83, -0.82, -2.2, -1.66, 0.96, 1.35, 2.26, 1.49, 0.89, 0.0, 0.0, 0.0, 0.0, 0.0, 0.0, -0.63, -1.33, -1.8, -2.68, -3.22, -3.22, -10.01, -10.01, -10.01, -10.01, -9.72, -10.06, -9.77, -10.09, -10.09, -9.8, -9.8, -10.12, -10.4, -10.4, -10.4, -10.4, -9.8, -9.8, -10.4, -10.45, -10.13, -9.84, -9.22, -9.22, -8.85, -8.58, -8.59, -8.53, -8.24, -8.54, -8.17, -7.89, -7.24, -7.24, -6.58, -5.92, -5.69, -5.7, -5.7, -5.32, -5.34, -4.69, -4.05, -4.05, -4.5, -3.56, -2.26, -1.26, -0.7, -0.88, 0.0, 0.0, 0.0, 0.0, 1.7, 1.7, 2.73, 2.73, 2.73, 2.73, 2.73, 3.48, 2.2, 5.69, 5.69, 8.05, 8.49, 8.05, 7.15, 7.6, 7.2, -0.0, -8.0, -7.6, -8.06, -3.2, 0.0, 0.0, 1.0, 1.96, 3.0, 3.55, 3.7, 2.31, 0.78, 0.0, 0.0, -0.72, -0.64, -0.74, -0.79, -0.94, -1.3, -1.41, -2.68, -3.48, -3.48, -3.48, -9.76, -9.76, -9.76, -10.01, -9.72, -10.06, -9.77, -9.77, -10.09, -9.8, -9.8, -9.8, -10.12, -10.4, -10.4, -10.4, -9.8, -9.8, -10.12, -10.13, -9.84, -9.84, -9.5, -9.22, -8.85, -8.58, -8.22, -8.23, -8.24, -8.24, -7.89, -7.61, -7.24, -7.24, -6.58, -5.92, -5.92, -5.69, -5.7, -5.72, -5.08, -4.69, -4.71, -4.05, -3.8, -3.05, -2.4, -1.76, -1.36, -0.72, -0.76, 0.0, 0.0, 0.0, 0.0, 1.19, 2.2, 2.2, 2.4, 2.98, 2.98, 2.73, 2.2, 0.0, 5.37, 8.05, 8.49, 8.49, 7.15, 6.8, 6.32, 2.54, -5.69, -8.49, -7.89, -6.28, -3.17, 0.0, 2.6, 5.86, 8.01, 8.2, 6.2, 3.23, 0.0, -1.05, -1.47, -1.47, -1.88, -2.2, -1.52, -1.41, -1.88, -2.0, -2.3, -3.48, -3.48, -3.48, -9.42, -9.42, -9.76, -9.76, -9.72, -9.72, -10.06, -9.77, -9.77, -9.8, -9.8, -9.8, -9.8, -10.12, -10.4, -10.4, -9.8, -9.5, -10.12, -10.13, -9.84, -9.21, -9.5, -9.22, -8.85, -8.85, -8.59, -8.23, -8.24, -7.6, -7.89, -7.61, -7.24, -6.7, -6.31, -5.92, -5.92, -5.69, -5.95, -5.7, -5.32, -5.34, -4.69, -4.28, -4.05, -3.8, -3.27, -2.75, -2.06, -1.55, -1.45, -0.78, 0.0, 0.0, 0.0, 0.88, 1.05, 1.99, 1.99, 2.4, 3.22, 2.98, 1.7, 2.2, 5.69, 5.69, 8.49, 7.6, 7.6, 5.95, 4.71, 2.4, -0.0, -8.49, -8.06, -7.07, -3.32, 0.0, 3.51, 6.62, 10.04, 9.95, 7.6, 4.24, 2.42, 0.0, -2.83, -3.47, -2.88, -2.66, -4.0, -1.94, -2.73, -2.73, -2.79, -3.84, -3.84, -3.84, -9.42, -9.42, -9.42, -9.76, -9.46, -9.46, -10.06, -9.77, -9.77, -9.8, -9.8, -9.8, -9.8, -10.12, -10.12, -9.8, -9.8, -9.5, -10.12, -10.13, -9.21, -9.21, -9.21, -9.5, -9.22, -8.85, -8.86, -8.23, -7.96, -7.6, -7.6, -7.22, -6.96, -6.96, -6.31, -6.31, -5.67, -5.69, -5.69, -5.7, -5.32, -5.08, -4.69, -4.71, -4.28, -3.8, -3.27, -3.27, -2.75, -2.18, -2.06, -1.45, -0.83, 0.0, 0.0, 0.76, 0.88, 0.96, 1.14, 2.16, 2.6, 2.6, 1.84, 1.7, 2.4, 6.01, 6.01, 7.6, 6.8, 5.37, 1.84, -0.0, -0.0, -2.54, -6.01, 0.0, 0.0, 2.97, 4.88, 7.27, 8.27, 8.84, 6.8, 5.67, 4.99, 2.95, 0.0, -4.0, -5.37, -6.32, -2.6, -1.8, -2.48, -2.79, -3.84, -4.92, -4.92, -4.92, -9.42, -9.42, -9.42, -9.76, -9.46, -9.46, -9.46, -9.77, -9.77, -9.77, -9.8, -9.8, -9.8, -9.8, -9.8, -9.19, -9.19, -9.19, -9.82, -9.82, -9.5, -9.21, -9.21, -9.5, -9.22, -8.85, -8.86, -8.59, -8.23, -8.24, -7.6, -7.6, -7.22, -6.96, -6.56, -6.31, -5.89, -5.67, -5.69, -5.04, -5.06, -5.08, -4.69, -4.69, -4.28, -3.8, -3.27, -3.27, -2.9, -2.75, -2.18, -1.4, -1.55, -0.83, 0.0, 0.0, 0.82, 0.82, 1.03, 1.03, 1.23, 2.8, 2.6, 1.84, 1.7, 0.0, 0.0, 0.0, 0.0, -0.0, -0.0, -0.0, -0.0, -0.0, -0.0, 4.0, 8.94, 6.64, 7.21, 8.15, 7.87, 6.7, 6.6, 7.36, 7.19, 5.21, 2.46, -1.49, -5.6, -3.16, -1.98, -1.8, -2.79, -3.49, -4.82, -4.09, -4.09, -4.09, -9.42, -9.42, -9.42, -9.42, -9.46, -9.46, -9.46, -9.48, -9.48, -9.48, -9.19, -9.8, -9.8, -9.8, -9.19, -9.19, -9.19, -9.19, -9.52, -9.82, -9.82, -9.21, -9.21, -9.5, -9.22, -9.22, -8.86, -8.59, -8.23, -8.23, -7.87, -7.6, -7.22, -6.96, -6.56, -6.31, -5.89, -5.67, -5.23, -5.26, -5.04, -5.06, -4.66, -4.69, -4.24, -3.56, -3.56, -3.27, -2.69, -2.75, -2.12, -2.18, -1.4, -0.79, 0.0, 0.0, 0.0, 0.0, 0.89, 1.03, 1.03, 1.23, 1.52, 1.84, 1.7, 5.69, 5.69, 5.69, 0.0, -0.0, -0.0, -0.0, -0.0, -0.0, 4.0, 8.0, 8.94, 8.77, 8.6, 8.22, 8.15, 6.83, 8.3, 9.7, 8.59, 5.95, 2.99, 0.0, 0.0, 0.0, 0.0, 0.0, -2.23, -3.16, -4.66, -4.66, -4.66, -4.66, -9.42, -9.42, -9.42, -9.42, -9.13, -9.46, -9.46, -9.48, -9.48, -9.48, -9.19, -9.19, -9.8, -9.19, -8.58, -8.58, -8.87, -9.19, -9.21, -9.82, -9.5, -9.5, -9.21, -9.5, -9.5, -9.5, -8.86, -8.59, -8.87, -8.23, -7.96, -7.59, -7.33, -6.96, -6.56, -6.31, -5.89, -5.67, -5.23, -5.26, -5.26, -4.84, -4.63, -4.66, -4.24, -4.24, -3.56, -3.27, -2.69, -2.54, -2.12, -2.0, -1.49, -1.55, 0.0, 0.0, 0.0, 0.0, 0.0, 0.0, 0.0, 1.32, 1.23, 1.41, 1.7, 5.06, 5.37, 3.6, 5.69, 0.0, 0.0, -0.0, -0.0, 3.8, 6.01, 7.6, 8.49, 8.05, 8.41, 8.17, 7.44, 7.28, 7.35, 8.22, 7.1, 4.36, 0.0, -3.79, -0.0, 4.47, 2.84, 0.0, 0.0, -4.02, -3.72, -3.48, -3.48, -3.48, -9.15, -9.12, -9.15, -9.15, -9.42, -9.46, -9.46, -9.46, -9.48, -9.48, -9.48, -9.19, -9.48, -8.87, -8.58, -8.58, -8.87, -9.19, -9.21, -9.21, -9.21, -9.21, -9.21, -9.21, -9.5, -9.5, -8.86, -8.86, -8.87, -8.23, -8.23, -7.96, -7.59, -6.94, -6.29, -6.31, -5.67, -5.67, -5.23, -5.02, -4.8, -4.6, -4.84, -4.16, -4.2, -4.24, -3.75, -3.05, -3.09, -2.54, -2.12, -2.0, -1.49, -0.79, -0.89, 0.0, 0.0, 0.0, 0.0, 0.0, 0.0, 0.0, 0.0, 1.41, 1.7, 0.0, 0.0, 5.37, 7.6, 7.6, 0.0, 8.49, 0.0, -0.0, 3.8, 7.6, 7.63, 8.05, 8.05, 8.38, 7.6, 7.07, 6.52, 5.1, 3.53, 0.0, -0.61, -4.46, -2.2, -1.41, 0.0, 0.0, -0.0, -2.23, -2.68, -2.0, -2.0, -2.0, -9.12, -9.12, -8.82, -9.15, -9.15, -9.13, -9.46, -9.46, -9.17, -9.48, -9.48, -9.19, -9.17, -8.87, -8.87, -8.87, -8.87, -9.21, -9.21, -9.21, -9.21, -9.21, -9.21, -8.86, -8.86, -8.86, -8.86, -8.86, -8.87, -8.59, -8.23, -7.96, -7.59, -7.33, -6.94, -6.29, -5.89, -5.67, -5.02, -5.26, -4.8, -4.6, -4.6, -4.16, -3.97, -4.0, -3.52, -3.05, -3.05, -2.54, -1.95, -2.12, -1.36, -1.65, -0.79, -0.89, 0.0, 0.0, 0.0, 0.0, 0.0, 0.0, 0.0, 0.0, 0.0, 0.0, 0.0, 0.0, 0.0, 0.0, 0.0, 0.0, 5.69, 8.94, 4.2, 4.0, 8.49, 8.05, 8.05, 8.49, 7.89, 6.28, 5.69, 3.17, 0.0, -0.85, -1.41, -3.48, -4.09, -3.22, -4.92, -4.4, -4.47, -2.84, -3.16, -2.73, -2.73, -2.73, -9.12, -9.12, -8.82, -8.82, -9.15, -8.85, -9.13, -9.46, -9.17, -9.17, -9.48, -9.17, -8.87, -8.56, -8.87, -8.87, -9.21, -9.21, -9.21, -9.21, -8.87, -8.87, -8.59, -8.86, -8.86, -8.86, -8.86, -8.59, -8.87, -8.59, -8.23, -8.24, -7.87, -7.33, -6.94, -6.96, -6.31, -5.89, -5.23, -5.02, -4.8, -4.6, -4.12, -3.94, -4.16, -3.49, -3.52, -3.35, -3.05, -2.37, -2.54, -1.95, -2.12, -1.49, -0.84, -0.79, -0.83, 0.0, 0.0, 0.0, 0.0, 0.0, 0.0, 0.0, 0.0, 0.0, 0.0, 0.0, 0.0, 0.0, 0.0, 0.0, 0.0, 0.0, -0.0, 6.01, 8.49, 8.49, 8.49, 8.49, 8.24, 6.79, 5.03, 0.82, 0.0, 0.0, -1.96, -3.04, -3.39, -2.86, -3.82, -4.47, -4.92, -4.34, -3.72, -4.66, -4.66, -4.66, -9.12, -9.12, -9.12, -8.82, -9.15, -8.85, -8.85, -9.46, -9.17, -8.56, -9.17, -8.56, -8.56, -8.56, -8.87, -9.19, -9.21, -9.21, -9.21, -8.87, -8.87, -8.87, -8.59, -8.59, -8.86, -8.86, -8.86, -8.59, -8.87, -8.23, -7.96, -8.24, -7.6, -7.6, -7.22, -6.96, -6.56, -6.31, -5.67, -5.23, -5.02, -4.6, -4.12, -3.94, -4.16, -3.49, -3.32, -3.52, -2.86, -3.05, -2.5, -2.54, -1.44, -1.58, -1.49, -0.84, -0.79, -0.83, 0.0, 0.0, 0.0, 0.0, 0.0, 0.0, 0.0, 0.0, 0.0, 0.0, 0.0, 0.0, -7.15, -7.15, -7.15, 0.0, 0.0, 7.15, 8.05, 8.49, 8.06, 8.06, 8.49, 7.07, 2.99, 2.49, 2.44, 2.1, -1.84, -3.51, -2.8, -3.32, -3.82, -4.47, -4.47, -4.38, -4.77, -4.66, -4.66, -4.66, -9.12, -9.12, -9.12, -8.82, -8.82, -9.15, -8.85, -9.13, -8.85, -8.53, -8.85, -8.56, -8.56, -8.56, -8.87, -9.19, -9.5, -9.21, -8.87, -8.87, -8.87, -8.87, -8.87, -8.59, -8.59, -8.59, -8.59, -8.22, -8.22, -8.23, -7.96, -8.24, -7.6, -7.6, -6.96, -6.96, -6.31, -6.31, -5.67, -5.67, -5.02, -4.57, -4.6, -3.94, -3.94, -3.49, -3.32, -3.52, -3.01, -2.86, -3.05, -2.5, -2.12, -1.44, -1.58, -1.65, -0.84, -0.79, -0.89, 0.0, 0.0, -0.95, -0.95, -1.1, -1.32, 0.0, 0.0, 0.0, -0.0, 0.0, -7.6, 0.0, -8.05, -8.49, -0.0, -0.0, 5.37, 0.0, 0.0, 5.69, 8.05, 5.37, 3.0, 2.83, 4.18, 3.7, 0.0, -2.8, -2.91, -3.74, -4.43, -4.02, -4.02, -4.47, -4.92, -4.92, -4.92, -4.92, -8.78, -8.78, -9.12, -8.82, -8.82, -8.82, -8.53, -8.53, -8.53, -8.53, -8.85, -8.56, -8.56, -8.87, -9.17, -9.19, -9.19, -8.87, -8.59, -8.59, -8.59, -8.59, -8.87, -8.59, -8.22, -8.22, -8.22, -8.22, -7.96, -8.23, -7.96, -7.96, -7.6, -7.33, -6.96, -6.7, -6.31, -6.31, -5.67, -5.92, -5.26, -5.26, -4.6, -4.6, -3.94, -3.94, -3.49, -3.32, -3.52, -3.01, -2.86, -3.05, -2.54, -2.12, -2.12, -1.49, -1.65, -0.79, -0.89, -0.89, -0.89, -0.95, -0.95, -2.26, -1.4, -1.52, 0.0, 0.0, -0.0, -7.6, -8.05, 0.0, -8.05, -6.01, -0.0, -0.0, -0.0, -7.6, -8.05, -8.05, 0.0, 0.0, 1.41, 1.84, 3.17, 2.54, 0.0, -2.6, -2.8, -3.32, -3.87, -5.16, -6.71, -5.36, -4.47, -4.47, -4.47, -4.47, -8.52, -8.52, -8.52, -8.82, -8.5, -8.82, -8.53, -8.53, -8.24, -8.53, -8.85, -8.56, -8.87, -8.87, -9.17, -9.19, -8.87, -8.87, -8.59, -8.59, -8.23, -8.23, -8.23, -8.23, -8.22, -8.22, -8.22, -7.96, -7.96, -8.23, -7.96, -7.6, -7.6, -7.33, -6.97, -6.97, -6.58, -6.33, -5.92, -5.69, -5.69, -5.26, -5.04, -4.6, -4.6, -3.94, -4.16, -3.49, -3.7, -3.52, -3.01, -3.05, -2.69, -2.54, -2.12, -2.31, -1.49, -1.65, -1.55, -0.89, -1.73, -1.73, -1.96, -1.96, -2.26, -2.49, -1.98, -4.11, -5.81, -7.6, -8.05, -8.05, -7.6, -5.37, -0.0, 0.0, 0.0, -5.69, -8.05, -7.6, -7.6, -6.8, -4.22, 0.0, 1.01, 1.2, 0.0, -3.13, -2.53, -3.2, -4.0, -6.0, -6.26, -4.24, -4.24, -5.26, -5.26, -5.26, -8.52, -8.52, -8.52, -8.78, -8.22, -8.22, -8.22, -8.22, -8.24, -8.85, -8.85, -8.87, -8.87, -8.87, -8.87, -8.87, -8.58, -8.58, -8.58, -8.23, -8.23, -8.23, -8.23, -8.23, -7.96, -7.96, -7.96, -7.96, -7.85, -7.59, -7.59, -7.6, -7.33, -7.33, -6.97, -6.97, -6.33, -6.33, -5.92, -5.69, -5.69, -5.26, -5.26, -5.26, -4.6, -4.6, -4.63, -4.16, -3.97, -3.7, -3.52, -3.05, -3.27, -3.27, -2.75, -2.75, -2.18, -2.18, -1.55, -1.55, -1.73, -1.73, -1.96, -2.99, -3.4, -3.68, -2.8, -4.43, -6.26, -8.05, -8.05, -7.6, -7.15, 0.0, -7.15, -7.6, -7.6, -7.6, -7.6, -7.6, -8.05, -8.05, -7.6, -2.49, 0.0, 0.0, 0.0, -0.96, -3.58, -2.53, -3.83, -5.16, -4.92, -4.73, -5.51, -6.64, -6.64, -6.64, -8.19, -8.19, -8.19, -8.52, -8.52, -8.22, -8.22, -8.53, -8.24, -8.54, -8.85, -8.87, -8.87, -8.87, -8.87, -8.87, -8.58, -8.58, -8.24, -7.96, -7.96, -8.23, -8.23, -8.23, -8.23, -7.96, -7.57, -7.85, -7.59, -7.59, -7.33, -7.6, -7.33, -6.96, -6.97, -6.97, -6.33, -6.33, -6.08, -5.69, -5.69, -5.52, -5.52, -5.52, -5.52, -4.84, -4.84, -4.63, -4.16, -4.2, -4.2, -3.75, -3.27, -3.27, -3.33, -2.75, -2.99, -2.18, -2.4, -2.4, -2.67, -2.67, -2.67, -2.99, -3.4, -3.68, -4.02, -4.74, -5.58, -6.36, -6.36, -8.49, 0.0, 0.0, -7.15, -7.6, -7.63, -7.2, -5.37, -7.63, -7.63, -8.05, -7.6, -3.91, -1.07, 0.0, 0.0, -0.83, -2.32, -4.92, -4.77, -4.85, -5.81, -7.21, -8.06, -8.3, -8.3, -8.3, -7.59, -7.59, -7.86, -8.19, -8.19, -8.22, -8.22, -8.53, -8.24, -8.54, -8.85, -8.56, -8.56, -8.56, -8.56, -8.56, -8.58, -8.24, -8.24, -8.24, -7.96, -7.96, -7.96, -7.59, -7.85, -7.59, -7.59, -7.59, -7.59, -7.59, -7.33, -7.6, -6.96, -6.96, -6.97, -6.97, -6.33, -6.33, -6.33, -5.69, -5.95, -5.95, -5.52, -5.52, -5.52, -5.05, -5.05, -4.84, -4.84, -4.88, -4.2, -3.75, -4.0, -3.8, -3.51, -3.33, -3.6, -2.99, -3.27, -2.4, -2.67, -2.67, -3.4, -3.99, -4.46, -4.75, -5.06, -5.06, -5.06, -5.58, -5.95, -8.94, 0.0, 0.0, 0.0, -6.8, -5.37, -0.0, -5.37, -6.8, -7.81, -8.05, -7.47, -5.93, -3.4, -1.11, 0.0, 0.0, 0.0, -1.1, -4.46, -6.71, -7.89, -8.3, -7.67, -6.01, -6.01, -6.01, -7.88, -7.88, -7.59, -7.9, -8.19, -8.22, -8.22, -8.53, -8.24, -8.54, -8.85, -8.85, -8.85, -8.56, -8.56, -8.24, -8.24, -8.24, -8.24, -8.24, -7.96, -7.96, -7.59, -7.59, -7.59, -7.59, -7.59, -7.59, -7.59, -7.59, -7.33, -7.22, -6.96, -6.96, -6.97, -6.97, -6.33, -6.33, -6.08, -5.69, -5.95, -5.95, -5.52, -5.52, -5.75, -5.52, -5.05, -5.05, -4.84, -4.88, -4.2, -4.45, -3.75, -4.0, -4.07, -4.07, -3.6, -3.6, -3.27, -3.27, -3.27, -3.6, -3.6, -3.99, -3.99, -4.75, -4.47, -5.06, -5.72, -5.36, -5.06, -5.06, 0.0, 0.0, 0.0, -5.06, -5.37, -3.6, -5.37, -6.8, -7.6, -7.6, -7.21, -6.32, -3.97, -2.33, 0.0, 0.0, 0.0, 0.0, -1.18, -3.6, -3.8, -3.15, -1.4, 0.0, 0.0, 0.0, -7.88, -7.88, -7.59, -7.9, -8.19, -8.22, -8.22, -8.53, -8.24, -8.54, -8.85, -8.85, -8.85, -8.56, -8.56, -8.24, -8.24, -8.24, -8.24, -8.24, -7.96, -7.96, -7.59, -7.59, -7.59, -7.59, -7.59, -7.59, -7.59, -7.59, -7.33, -7.22, -6.96, -6.96, -6.97, -6.97, -6.33, -6.33, -6.08, -5.69, -5.95, -5.95, -5.52, -5.52, -5.75, -5.52, -5.05, -5.05, -4.84, -4.88, -4.2, -4.45, -3.75, -4.0, -4.07, -4.07, -3.6, -3.6, -3.27, -3.27, -3.27, -3.6, -3.6, -3.99, -3.99, -4.75, -4.47, -5.06, -5.72, -5.36, -5.06, -5.06, 0.0, 0.0, 0.0, -5.06, -3.4, -3.6, -5.37, -6.8, -7.6, -7.5, -7.31, -6.32, -5.06, -3.4, -1.2, 0.0, 0.0, 0.0, 0.0, 0.0, 1.2, 1.2, 1.2, 1.2, 1.2, 1.2]}]